GEFSSE_500_meanwind_090.txt.gz
Wind_Speed
1 1 1 2 3 3 3 4 5 6 7 9 10 11 11 11 11 10 10 11 10 9 8 8 8 8 7 7 8 8 8 8 8 8 8 8 8 7 7 6 6 5 5
2 2 2 2 3 4 4 4 5 6 7 9 10 11 11 11 11 10 10 10 10 9 8 8 7 7 7 7 7 7 7 7 7 7 7 7 6 6 6 5 5 4 4
4 4 5 5 5 6 6 6 7 8 8 9 10 11 11 11 11 10 10 9 9 9 8 7 7 7 7 6 6 5 5 5 6 6 6 5 5 5 5 4 3 3 3
7 6 7 7 8 8 8 8 9 9 10 10 10 11 11 11 11 11 11 10 9 9 8 8 7 6 6 6 5 4 4 4 4 4 4 4 4 4 4 3 2 2 1
9 8 8 9 10 11 11 11 11 12 12 11 11 12 12 12 12 12 12 11 10 9 9 8 8 7 6 6 5 4 3 3 3 3 3 3 3 3 2 2 1 1 1
11 11 11 11 12 13 13 13 13 14 14 14 13 13 13 13 13 13 13 12 11 10 10 9 9 8 7 6 5 4 4 3 3 2 2 2 2 2 1 1 0 1 1
13 14 14 14 14 15 15 16 16 16 16 16 16 15 15 15 14 14 14 13 12 11 11 10 10 9 8 7 6 5 4 3 3 3 2 2 1 1 1 1 1 2 2
15 16 16 16 16 17 17 19 19 19 19 18 17 17 17 17 17 16 16 15 14 13 12 11 11 10 9 8 7 6 5 4 3 3 2 1 1 0 1 1 2 2 2
18 19 19 20 20 20 20 20 20 21 21 21 21 19 19 19 19 19 18 17 16 14 14 13 12 12 11 10 9 8 6 6 4 4 3 2 1 1 1 2 2 2 2
21 21 21 21 22 23 23 23 23 23 23 23 23 22 21 21 21 21 20 19 18 17 16 15 14 13 12 12 11 9 8 7 6 5 4 3 2 2 2 2 2 2 3
22 24 24 24 25 25 26 26 27 26 26 26 25 24 23 23 22 23 23 22 21 20 19 18 16 15 14 14 13 12 10 8 7 6 6 4 4 3 3 3 2 3 3
25 26 26 26 27 28 29 30 29 29 29 28 27 27 27 26 25 25 24 25 24 22 21 20 19 17 16 16 15 14 12 11 9 8 7 6 5 4 4 4 3 3 3
26 27 28 28 29 30 31 32 32 32 32 32 31 30 30 28 28 28 27 26 26 25 23 23 22 20 19 17 17 16 14 13 11 10 9 8 7 7 6 5 4 4 4
27 28 29 30 31 32 33 34 34 35 35 35 35 35 33 32 31 30 30 29 28 28 26 24 24 22 21 20 19 18 17 15 14 12 11 10 9 8 8 7 6 5 5
27 27 29 30 31 32 33 34 35 36 37 38 38 38 37 36 34 34 31 30 30 29 27 25 26 25 24 23 22 21 20 18 17 15 14 13 11 10 10 9 8 7 7
27 27 28 29 29 30 31 32 34 35 36 38 39 39 39 38 38 36 36 34 33 32 30 28 27 26 25 25 25 24 23 21 20 18 17 15 14 13 12 11 10 9 9
26 26 27 27 27 28 29 30 31 33 35 36 37 38 39 40 39 38 38 37 36 34 32 31 31 28 28 27 27 26 25 24 23 21 19 18 17 15 14 13 12 12 11
24 24 25 25 26 26 27 27 28 29 30 33 35 37 37 39 39 40 39 39 37 36 34 33 32 30 30 29 29 28 27 27 26 24 23 21 20 18 17 16 14 14 13
23 23 24 24 23 23 24 24 24 25 26 28 31 33 35 37 38 39 39 40 39 38 37 36 35 33 32 31 30 30 30 29 28 27 26 24 23 21 20 18 17 16 15
22 23 23 23 22 22 22 22 22 22 23 25 26 29 31 34 35 37 38 39 40 39 39 37 37 36 35 34 32 32 32 31 30 30 28 27 26 25 23 22 20 19 18
22 22 22 22 22 22 21 20 20 20 21 22 24 27 29 31 33 35 36 37 38 38 39 39 38 37 37 36 35 33 33 34 33 32 30 29 28 27 26 25 24 22 21
22 22 22 22 21 21 20 19 19 19 19 20 21 23 26 28 30 32 35 36 37 38 39 39 40 40 39 38 37 36 35 34 34 34 33 32 31 30 29 27 26 25 24
22 22 22 21 21 20 19 18 18 17 17 17 18 19 21 24 27 29 31 34 37 38 39 40 41 41 41 40 39 37 37 36 35 35 35 34 33 32 31 30 29 27 26
22 22 22 22 21 20 19 17 16 15 15 15 15 16 17 19 21 24 27 30 33 35 38 40 41 42 42 41 41 40 39 37 36 35 35 36 35 34 33 32 31 30 29
23 22 22 22 21 20 19 18 16 15 13 12 12 13 14 15 18 20 23 26 29 31 34 37 39 41 41 42 41 41 40 38 36 38 36 36 36 36 36 35 34 32 31
23 22 22 22 22 21 20 19 17 16 14 13 11 11 11 12 15 17 19 22 24 27 30 33 36 39 40 40 39 40 41 40 37 38 37 36 36 36 36 36 35 33 32

GEFSSE_500_meanwind_096.txt.gz
Wind_Speed
7 6 7 7 6 6 6 5 6 7 8 9 11 12 13 13 14 14 14 15 15 14 13 13 12 12 11 11 10 9 9 9 8 8 7 7 7 7 6 5 5 5 5
9 9 9 9 8 8 8 8 8 8 9 10 11 12 13 13 14 15 15 15 15 15 14 13 12 12 11 10 9 9 9 8 8 7 6 6 6 6 5 5 4 4 4
11 11 11 11 11 11 11 11 10 10 10 11 12 13 14 15 15 15 15 15 15 15 14 13 13 11 10 10 9 9 8 8 7 6 5 5 5 5 5 4 3 3 3
13 13 13 13 13 13 14 14 14 13 13 13 13 14 15 15 15 15 16 16 15 15 15 14 13 12 11 10 10 9 8 7 6 5 5 5 5 4 4 3 2 2 1
15 14 14 15 15 15 16 16 16 16 16 15 15 15 15 16 16 16 16 16 16 15 15 14 13 12 11 10 9 9 8 7 5 5 4 4 4 3 3 2 2 1 0
17 17 17 18 18 18 18 18 18 18 19 18 18 18 17 17 17 18 18 17 17 16 16 15 14 13 12 11 10 9 8 7 6 5 4 4 3 2 2 1 1 1 1
18 18 19 19 20 20 21 21 21 21 21 22 21 21 21 20 20 20 19 19 18 18 17 16 15 14 13 12 11 10 8 7 6 5 4 4 3 2 2 1 1 2 2
20 20 20 20 20 21 22 22 23 23 24 24 24 23 23 23 23 22 22 21 20 19 18 17 16 15 14 13 12 11 9 8 7 6 5 4 3 2 2 1 1 2 3
21 22 22 22 22 23 23 25 24 25 26 27 26 27 26 26 26 25 24 24 22 21 20 19 18 16 15 15 14 12 11 10 8 7 6 5 4 3 2 1 2 3 4
22 23 24 25 25 25 25 26 26 27 27 27 28 27 28 29 28 27 26 26 25 23 22 21 20 19 17 17 16 14 13 11 9 8 7 6 5 4 3 2 3 3 4
24 24 25 25 26 26 27 27 27 28 28 28 28 28 28 28 28 28 28 27 27 26 24 23 22 21 20 19 17 16 15 13 11 9 9 8 6 5 4 4 4 4 4
25 25 26 26 26 27 28 29 29 30 30 30 30 30 29 28 29 29 28 28 28 28 27 26 25 23 23 21 20 19 17 15 13 12 10 9 8 7 6 5 5 5 4
26 27 27 28 28 28 28 28 29 31 32 32 32 31 31 30 29 30 29 28 27 26 27 27 28 25 24 23 22 21 19 17 15 14 13 11 10 9 8 7 6 5 5
26 27 27 28 28 29 29 29 29 30 31 32 33 33 32 31 31 31 31 30 29 27 27 27 28 27 26 25 24 23 22 20 18 16 15 14 12 11 10 8 7 7 6
26 26 27 27 27 28 28 28 29 29 30 31 32 33 33 33 33 32 32 31 31 30 29 28 28 27 27 27 26 25 24 22 21 19 17 16 14 13 12 10 9 8 7
25 25 25 25 25 25 25 26 26 27 28 29 30 32 33 33 33 34 34 33 33 31 30 30 29 28 28 28 28 28 26 25 23 22 20 18 17 15 14 13 11 10 10
24 24 23 23 23 23 23 24 24 24 25 27 29 30 31 32 33 33 34 34 34 33 32 32 31 30 29 28 28 29 29 26 25 24 22 21 19 18 16 15 14 13 12
23 23 22 22 22 22 22 22 23 24 25 26 27 28 29 30 31 32 32 33 33 34 34 34 33 32 32 30 29 30 30 29 26 26 24 23 22 20 19 17 16 15 14
23 22 22 22 21 21 21 22 22 22 23 24 25 26 27 29 29 30 31 32 34 34 34 34 34 33 33 32 31 30 30 30 29 27 26 25 24 23 22 20 19 17 16
23 23 22 22 21 21 21 21 21 21 21 22 22 22 23 25 27 28 29 30 32 33 34 34 34 34 34 33 33 32 31 32 30 29 28 27 26 25 24 23 21 20 19
23 23 22 22 21 21 21 20 20 19 19 19 19 19 20 22 24 25 26 28 30 31 32 34 34 34 33 34 34 33 33 32 31 30 30 29 29 28 26 25 24 23 22
23 23 22 22 21 21 20 20 19 18 17 16 16 16 17 18 20 22 24 25 27 29 30 33 34 34 34 34 34 34 34 33 33 32 31 31 30 30 28 27 27 25 24
22 22 22 22 22 21 21 20 19 18 17 16 15 14 15 16 17 19 21 23 25 26 28 30 32 33 34 34 35 35 34 34 33 34 34 32 31 30 30 29 29 28 27
22 22 22 22 22 22 21 20 19 19 17 16 15 14 13 14 15 16 18 20 22 24 25 28 30 31 33 34 35 36 36 34 34 34 34 34 33 32 31 31 31 30 29
22 22 22 22 22 22 21 21 20 19 18 17 16 15 13 13 13 14 15 17 19 21 23 25 28 30 32 33 34 35 36 35 35 34 33 34 34 34 34 33 32 32 32
22 23 22 22 23 23 22 21 20 20 18 17 16 15 14 13 12 12 13 15 17 19 21 23 25 28 30 32 33 34 35 35 34 35 34 35 35 35 35 36 34 33 32

GEFSSE_500_meanwind_102.txt.gz
Wind_Speed
7 7 7 6 6 7 7 7 7 8 9 9 10 11 13 15 16 17 16 15 16 15 15 15 15 14 14 14 13 12 11 11 10 9 8 7 6 6 5 4 4 3 2
9 10 9 8 8 8 8 9 9 10 10 10 11 12 13 15 16 17 17 17 17 16 15 15 15 15 15 14 13 12 11 10 10 9 8 7 6 6 5 4 3 2 1
10 11 11 11 11 11 11 11 11 12 12 12 13 13 14 15 16 16 17 17 17 17 17 16 16 16 15 14 13 12 11 10 9 8 8 7 6 5 5 4 2 1 1
12 13 13 13 13 14 14 14 14 14 14 15 15 15 15 16 16 17 17 18 18 17 17 17 17 16 15 14 13 11 10 10 9 8 8 7 6 5 4 3 2 1 0
14 14 15 15 15 16 16 17 17 17 17 17 18 18 17 17 17 18 19 19 19 18 18 18 17 16 16 14 13 11 10 9 9 8 7 7 6 5 4 3 2 1 2
16 16 16 17 17 18 18 19 20 20 21 21 20 20 20 20 19 19 20 21 20 20 19 19 18 17 16 15 13 11 10 9 8 8 6 5 5 4 3 3 3 2 3
17 17 18 19 19 19 20 20 20 21 22 23 24 23 23 23 22 21 21 21 21 21 20 20 19 18 17 15 13 12 10 9 8 7 6 5 5 4 3 3 3 3 3
17 18 19 20 20 21 21 22 21 22 24 24 25 26 26 26 26 24 23 23 23 23 22 21 20 19 18 16 15 13 11 10 9 8 7 6 5 4 4 4 4 4 4
18 19 20 20 21 22 22 23 23 24 24 25 26 28 28 28 28 27 26 26 25 24 24 23 21 20 19 18 16 14 13 11 10 9 8 7 6 5 4 4 4 4 5
19 20 20 20 21 21 22 23 24 25 25 26 27 28 29 30 30 30 30 29 28 27 25 24 24 22 21 20 18 16 14 13 12 11 9 8 7 6 5 4 4 5 5
20 20 20 21 21 22 23 24 25 26 26 27 28 28 29 30 30 31 30 30 30 29 28 26 26 25 23 22 20 18 16 15 14 13 11 9 8 7 6 5 5 5 6
20 21 21 21 22 23 24 25 25 26 27 28 29 29 30 30 30 31 30 30 30 29 28 27 27 26 25 24 22 21 19 17 16 15 13 11 9 8 7 6 6 6 6
21 22 22 22 22 23 23 24 24 25 26 28 29 30 30 30 30 30 31 31 30 30 30 29 27 28 27 26 24 22 21 20 18 17 15 13 11 10 9 8 7 7 7
22 21 21 21 21 21 21 21 22 23 24 26 27 29 30 31 31 31 31 32 31 30 30 29 29 28 28 28 27 25 24 22 20 19 17 16 14 12 11 10 9 8 8
21 21 20 20 20 20 20 20 20 21 22 23 24 26 27 29 31 32 33 33 32 32 32 30 30 30 28 28 27 26 24 23 22 21 20 18 16 15 14 12 11 10 9
20 20 20 20 20 20 19 19 20 20 21 21 22 23 25 26 28 29 31 33 33 33 33 32 31 31 30 28 28 28 26 25 24 23 22 21 19 17 16 15 13 12 11
20 20 20 20 19 19 18 18 19 19 19 20 20 21 22 24 26 27 29 32 33 33 33 32 32 32 32 31 29 28 28 27 26 25 24 23 21 20 19 17 16 15 14
20 20 20 20 19 19 18 18 18 18 18 19 19 20 20 22 24 26 27 29 31 33 32 32 33 33 33 32 30 30 29 28 28 27 26 25 24 22 21 20 18 17 16
21 21 21 20 20 19 18 17 17 18 18 18 18 18 18 19 21 23 25 27 29 31 32 32 33 34 33 34 32 31 30 29 29 29 28 27 26 24 23 22 21 19 18
22 21 21 20 20 19 18 18 18 18 17 17 16 16 16 17 18 19 21 24 27 29 30 31 32 33 34 34 34 33 32 31 31 30 30 28 27 26 25 24 23 22 21
21 21 21 21 20 20 19 19 18 18 18 17 17 16 15 15 16 17 18 20 23 26 28 30 31 32 33 35 34 34 33 33 32 32 31 31 29 29 28 26 26 25 23
21 22 22 21 20 20 20 20 19 19 18 18 17 15 15 14 14 14 15 16 18 21 25 27 29 30 32 33 34 34 33 33 32 32 31 32 32 30 30 29 27 27 26
21 22 22 21 20 21 21 21 20 19 19 18 17 15 14 13 12 12 12 14 15 18 21 24 27 29 30 32 34 35 34 33 33 33 33 33 34 33 32 31 29 28 28
20 21 22 22 21 21 21 21 21 21 20 18 17 16 14 13 12 11 10 11 13 14 17 20 23 26 27 29 32 34 35 35 34 33 34 33 34 34 33 32 31 30 30
20 21 22 22 22 22 22 21 21 21 21 19 18 17 15 13 12 10 9 9 10 12 14 17 20 23 25 27 29 32 33 35 35 34 33 33 34 34 33 33 34 33 31
19 21 22 23 23 23 23 22 22 22 21 20 19 18 17 15 12 10 9 7 8 10 12 15 17 20 23 25 27 29 31 32 34 35 34 33 33 34 34 33 34 33 33

GEFSSE_500_meanwind_108.txt.gz
Wind_Speed
9 9 9 8 9 9 9 9 8 8 8 9 9 10 10 12 13 14 14 14 15 14 13 13 11 11 11 11 11 11 11 11 10 10 10 9 8 7 6 6 4 4 2
9 10 10 10 10 11 11 11 11 10 11 11 11 11 12 12 13 15 15 15 16 15 14 13 13 12 11 11 11 10 10 10 9 9 9 8 7 6 6 5 4 3 2
10 11 11 11 12 12 13 13 13 13 13 13 13 13 14 14 14 14 15 15 16 16 15 15 14 13 12 11 10 10 10 9 9 9 8 8 7 6 5 4 3 2 1
11 12 12 13 13 14 14 15 15 15 15 15 15 15 16 16 15 15 16 16 16 16 16 16 15 14 13 11 10 10 10 9 8 8 7 7 7 5 5 4 2 2 1
12 13 14 15 15 15 16 16 17 17 17 18 18 18 18 18 17 17 17 17 17 17 16 16 16 15 14 12 11 11 10 9 7 7 6 6 6 5 4 3 2 2 1
13 14 15 16 17 17 18 19 19 19 20 20 20 20 20 20 20 20 19 19 19 18 17 17 17 16 15 14 12 11 10 9 7 7 6 5 4 3 3 2 2 2 2
15 16 16 17 18 18 19 20 20 21 21 21 22 22 22 22 22 21 21 21 21 21 20 19 18 17 16 15 13 12 11 10 8 7 5 4 4 3 2 2 2 2 2
16 17 17 17 18 18 19 20 21 22 23 23 23 23 24 24 23 24 23 22 22 21 22 21 20 19 17 16 15 14 12 11 9 7 6 5 4 3 2 2 2 2 2
17 18 19 19 19 20 20 21 22 24 24 24 25 24 24 25 26 26 26 25 24 24 23 23 21 20 19 18 17 16 14 12 10 9 7 6 4 3 3 3 3 3 3
18 19 20 20 20 21 21 22 23 24 25 26 26 26 26 26 26 27 27 27 27 26 25 24 23 22 21 20 19 18 16 14 12 11 9 8 6 4 4 4 4 4 4
18 19 20 20 21 21 21 22 23 24 25 26 27 28 29 29 29 28 28 29 29 28 27 26 25 25 23 23 21 19 18 16 14 13 11 10 8 6 5 5 5 5 5
18 18 19 19 20 20 20 21 21 22 23 25 27 28 29 30 30 30 30 30 29 29 29 28 27 26 25 23 23 22 20 18 17 15 13 12 10 8 7 6 6 6 6
17 18 18 18 18 18 18 19 20 21 22 23 25 27 28 28 29 30 31 31 30 30 30 29 28 27 27 25 23 23 22 21 19 18 16 14 12 11 9 8 7 7 7
17 17 18 18 17 17 17 18 18 19 20 21 22 23 25 27 27 27 28 30 30 31 30 30 29 28 27 26 25 25 23 22 22 20 19 17 15 13 12 11 10 9 8
17 17 18 18 17 17 17 17 18 18 18 19 20 21 22 23 25 26 26 28 30 31 30 30 29 29 28 27 26 26 26 24 23 22 21 19 17 16 14 13 12 11 10
16 17 18 18 18 17 17 18 18 18 17 18 18 19 20 21 23 24 25 26 27 29 30 30 30 30 29 29 27 27 27 26 25 24 23 21 20 19 17 16 14 13 12
17 18 19 19 19 17 17 17 18 17 17 17 17 17 18 19 20 22 23 25 26 27 28 29 30 30 30 30 29 28 28 28 27 25 24 23 22 21 20 19 17 16 14
17 18 19 19 18 17 17 17 17 17 17 17 17 17 17 18 19 20 21 23 25 26 27 28 29 29 30 30 30 30 29 29 29 27 25 25 24 23 22 21 20 18 17
17 18 18 19 19 18 18 18 18 18 18 18 17 17 17 17 17 18 19 21 22 24 25 26 27 28 29 30 30 30 30 29 29 29 28 26 25 25 24 24 23 21 19
17 18 19 19 20 19 19 19 19 19 18 18 18 17 17 16 16 16 17 18 20 21 23 24 25 27 28 29 29 30 31 30 30 29 29 28 27 27 26 25 25 24 22
16 18 19 20 21 20 20 20 20 19 19 19 18 17 16 15 14 14 14 15 16 18 20 22 23 25 27 27 28 29 30 31 31 30 30 30 30 29 28 27 26 26 25
16 17 19 20 21 22 21 21 20 20 20 19 18 17 16 15 14 13 13 13 14 16 18 20 21 23 25 27 27 28 28 30 31 31 32 32 31 31 31 30 29 28 26
16 17 19 20 21 22 22 21 21 21 20 20 19 17 16 15 13 12 11 11 12 13 15 18 20 21 23 25 27 27 28 29 30 32 33 34 33 32 32 32 32 30 28
16 17 19 20 21 22 22 22 22 22 22 21 20 18 16 15 13 11 10 10 10 11 13 15 18 20 22 23 26 26 27 29 30 31 32 33 34 33 32 32 32 31 30
15 17 19 20 21 22 22 23 22 22 22 22 21 19 17 15 13 12 10 10 9 9 10 13 15 17 20 22 24 25 25 28 29 29 31 33 33 33 33 32 33 32 32
15 16 18 20 21 22 23 23 23 23 23 22 21 20 18 16 14 12 10 10 9 8 9 9 11 15 17 20 21 23 24 25 26 28 30 31 32 32 32 32 33 33 33

GEFSSE_500_meanwind_114.txt.gz
Wind_Speed
8 8 8 8 8 9 9 9 9 9 10 11 11 12 12 13 14 14 15 15 15 15 15 14 13 12 10 9 9 8 7 6 6 5 5 5 4 4 3 3 2 2 1
9 9 9 9 10 10 11 11 11 11 12 12 13 13 13 14 15 15 15 15 16 16 16 15 14 13 12 11 10 8 7 6 5 5 5 5 4 4 3 2 2 2 1
9 10 10 11 11 11 12 13 13 13 13 14 15 15 15 16 16 16 16 16 16 17 16 16 15 14 13 12 10 9 8 7 6 5 5 4 4 4 3 2 2 2 2
10 10 11 11 12 13 13 14 15 15 15 16 16 16 17 17 17 18 18 18 18 17 16 16 16 16 14 13 12 10 9 8 6 5 5 4 4 4 3 3 3 2 2
10 10 11 12 13 14 15 16 16 17 17 17 18 18 18 19 19 19 20 20 19 18 17 17 17 17 16 15 13 12 11 9 7 6 5 4 4 3 3 3 3 3 3
10 11 12 13 14 15 16 17 18 18 19 20 20 20 21 20 21 21 21 21 20 20 19 19 18 18 17 16 15 13 12 11 9 7 6 4 4 3 3 3 4 4 4
11 12 13 14 15 16 17 17 19 20 21 21 22 21 22 22 22 22 22 22 22 22 21 20 20 19 18 17 16 15 14 12 11 9 7 6 5 4 4 4 4 4 4
12 14 15 15 16 16 17 19 20 21 22 23 23 23 23 24 23 24 24 24 24 23 23 22 21 20 19 19 17 17 16 14 12 11 9 7 6 6 5 5 5 5 5
13 14 15 16 16 17 18 19 20 21 22 23 24 25 25 25 25 25 25 24 25 24 24 24 22 21 21 20 19 18 17 16 15 13 11 10 8 7 6 6 6 6 6
13 14 15 16 16 17 18 19 19 20 21 22 23 25 26 25 25 26 26 25 25 25 25 25 24 23 22 22 21 20 19 18 17 15 14 12 10 9 8 8 8 7 6
13 13 15 15 16 16 17 17 18 18 20 21 22 23 25 26 26 27 27 27 27 27 26 26 26 25 23 22 22 21 20 19 19 18 16 14 13 11 10 9 9 8 8
12 13 13 14 15 16 16 17 17 18 18 19 20 22 23 25 26 27 27 28 28 28 27 26 26 26 25 24 23 22 22 21 20 20 18 16 15 13 12 11 10 10 9
11 11 12 14 15 16 16 16 16 17 18 18 19 20 21 23 24 25 27 27 27 28 29 28 27 27 27 26 25 24 23 23 22 21 20 18 17 15 14 13 12 11 11
10 11 13 14 15 15 15 15 16 16 17 17 18 18 19 20 21 23 24 25 26 27 28 29 28 27 27 27 27 26 24 24 24 23 22 20 19 17 16 15 13 13 13
10 12 13 14 14 15 15 15 16 16 16 16 17 17 18 19 20 20 21 23 23 25 26 28 28 27 27 27 27 27 26 26 25 24 24 22 21 20 19 17 15 15 14
11 12 13 14 15 16 16 16 16 16 16 16 17 17 17 18 19 20 20 21 22 23 24 25 26 26 26 27 27 27 27 27 26 26 25 24 23 22 21 20 18 17 16
11 12 13 14 15 16 16 16 15 16 16 17 17 17 17 18 18 19 20 20 21 22 23 24 25 26 26 27 26 26 27 28 28 28 27 26 25 23 22 22 20 19 17
10 12 13 14 15 16 16 16 16 16 17 17 17 17 17 17 17 17 18 20 20 21 22 24 24 26 26 26 27 26 27 28 29 29 29 28 27 25 24 24 23 21 20
11 12 13 14 15 16 16 16 17 17 17 17 16 17 16 16 16 16 17 18 19 19 21 22 24 25 26 26 26 26 27 29 29 30 30 30 28 27 26 25 24 23 22
10 12 13 14 15 16 16 17 18 17 17 17 16 16 16 15 15 15 15 16 16 17 18 20 22 24 24 25 26 27 28 30 29 29 30 31 30 29 28 27 25 24 24
10 11 13 14 15 16 17 18 18 18 17 17 17 16 15 14 13 13 13 13 13 14 16 17 19 21 23 24 25 26 27 29 29 29 30 31 31 31 30 29 27 26 25
10 11 12 14 15 16 17 18 18 18 18 17 17 17 16 14 13 12 11 11 11 12 13 15 17 19 21 23 24 26 27 28 30 29 30 31 32 32 31 30 29 28 27
9 11 12 14 15 16 17 18 18 19 18 18 18 17 16 14 12 10 10 10 9 10 10 12 15 17 19 21 23 25 27 28 28 29 31 31 32 33 33 32 31 30 30
9 10 12 14 15 16 17 18 19 19 19 19 19 18 16 14 12 10 9 9 8 8 8 10 11 14 16 18 21 23 25 26 28 28 30 31 32 33 33 33 32 31 31
8 10 11 13 15 17 18 18 19 19 20 20 19 18 17 14 12 11 10 8 8 7 7 7 9 11 13 15 18 21 22 25 26 27 27 29 31 32 33 33 33 32 32
8 9 11 13 15 17 18 18 19 20 20 20 19 19 17 15 13 11 10 9 8 7 5 5 7 9 11 13 15 18 20 22 24 26 26 28 30 31 32 33 34 33 33

GEFSSE_500_meanwind_120.txt.gz
Wind_Speed
8 9 10 10 10 10 11 11 12 12 12 12 13 13 13 13 14 14 15 16 16 17 17 17 17 16 14 13 12 11 9 9 8 7 6 5 5 5 4 4 3 2 2
9 10 11 11 11 12 12 13 13 14 14 15 15 15 15 15 16 16 16 16 17 18 18 18 17 17 16 15 14 12 11 10 9 8 7 6 5 5 4 4 3 2 2
10 11 11 12 12 13 14 14 14 15 15 16 17 17 17 17 17 17 18 18 18 19 19 19 18 18 17 16 15 14 12 11 10 9 8 6 6 5 4 4 3 2 2
11 11 11 12 13 14 14 15 16 16 16 17 17 18 18 18 19 20 20 20 20 20 20 20 19 19 18 18 17 15 14 12 11 9 8 7 6 5 5 4 3 3 3
11 12 12 13 13 14 15 16 17 18 18 18 18 18 19 19 20 21 21 21 21 21 21 21 20 20 19 18 18 16 15 14 12 11 9 7 7 5 5 4 3 3 3
12 12 13 13 14 15 16 17 18 18 19 19 19 19 19 20 21 21 21 22 22 22 22 22 21 20 20 19 18 18 17 15 13 12 10 9 7 6 5 4 4 3 3
13 13 14 15 15 16 16 17 17 18 19 20 20 20 21 21 21 22 21 22 23 23 23 23 22 21 21 21 20 19 18 17 15 13 12 10 9 7 6 5 5 4 4
12 13 14 14 15 16 17 17 17 18 19 20 20 21 21 22 23 24 23 22 23 24 24 24 23 23 23 23 21 20 19 19 17 15 13 12 10 8 7 6 6 5 5
12 12 13 14 15 15 16 17 17 17 18 19 19 20 21 22 23 24 24 25 24 24 25 25 24 23 24 24 23 22 20 19 19 17 16 14 12 10 9 8 7 6 6
11 12 12 13 14 14 15 16 16 17 17 17 18 19 20 21 22 23 24 24 26 25 25 25 25 24 24 24 24 23 22 20 20 18 17 16 14 12 10 9 9 8 7
11 11 11 12 13 14 14 15 16 16 17 17 17 18 19 20 21 22 22 23 24 25 26 25 25 26 24 24 25 24 23 22 20 19 19 18 16 14 12 11 10 10 8
10 10 11 13 14 15 16 16 16 16 16 17 17 17 18 19 20 21 21 21 23 24 25 25 25 26 26 25 25 25 25 24 22 21 20 20 18 17 15 13 12 11 10
9 10 12 14 15 16 17 17 17 17 17 17 17 17 17 18 19 19 20 20 21 22 22 23 24 25 26 25 25 25 25 25 24 23 22 21 20 19 17 15 14 13 12
9 11 13 14 16 16 17 18 18 18 18 17 17 17 17 18 18 19 19 19 20 21 21 22 22 24 25 25 25 25 25 24 25 23 23 22 21 21 19 17 16 15 14
9 11 13 15 15 16 17 18 18 18 18 18 18 18 18 18 18 18 19 19 19 20 21 22 22 23 24 25 25 25 26 26 26 25 24 23 23 23 22 19 18 16 15
10 12 13 14 15 17 18 18 18 18 19 19 19 19 19 19 19 18 18 18 18 18 19 21 22 23 24 25 25 25 26 27 27 26 25 25 25 24 24 22 20 18 16
11 12 13 15 16 17 18 18 19 19 19 19 19 19 19 19 19 18 18 18 18 17 17 19 20 21 23 24 25 26 26 26 27 28 27 25 26 26 25 23 21 20 19
11 12 14 15 16 17 18 19 19 19 19 19 19 19 19 19 19 18 17 17 17 17 17 17 18 20 21 22 23 25 26 26 26 28 27 26 26 26 26 25 23 22 20
10 12 13 14 16 17 18 18 19 19 19 20 20 19 19 19 19 17 16 16 16 16 16 16 17 18 19 21 22 23 25 26 26 27 28 26 27 27 27 26 24 23 22
10 12 13 14 16 17 18 18 19 19 20 20 20 20 19 19 18 16 15 14 14 14 14 15 15 16 18 19 20 21 23 24 24 25 27 26 26 27 27 27 25 24 23
10 11 13 14 15 17 18 19 19 20 20 21 21 20 19 18 17 15 13 13 13 13 13 14 14 15 16 17 19 20 22 23 24 24 26 28 27 28 28 27 27 25 24
9 10 12 14 15 17 18 19 19 20 20 21 21 20 19 18 17 15 13 12 11 11 11 11 11 13 14 16 18 19 21 23 23 24 24 27 27 28 28 27 28 27 25
9 10 12 14 16 17 19 19 20 20 21 21 21 20 19 18 16 15 13 11 10 10 10 10 9 10 12 14 16 18 20 21 22 23 24 25 28 28 29 28 28 28 27
8 10 12 14 16 17 18 19 19 20 21 21 21 20 19 18 17 15 14 12 10 9 9 8 8 9 10 12 14 16 17 19 20 21 22 24 26 28 29 29 29 29 28
9 10 11 13 15 17 18 19 19 20 21 21 21 21 19 18 17 15 14 12 11 10 8 7 7 7 9 10 12 14 16 16 18 19 21 23 25 26 27 28 29 30 29
9 10 11 13 15 16 18 19 19 20 20 21 21 21 20 19 17 16 14 12 11 9 8 7 6 6 7 9 11 13 14 15 17 19 19 21 23 25 26 27 28 29 31

GEFSSE_500_meanwind_126.txt.gz
Wind_Speed
6 6 6 6 7 7 8 8 9 10 10 11 12 13 14 14 14 15 16 17 17 17 18 18 19 18 18 17 17 15 14 13 11 10 9 8 8 7 7 6 5 4 3
6 6 7 8 8 8 9 10 10 11 12 13 14 14 15 15 16 16 16 18 18 19 19 20 20 19 19 18 17 16 15 14 12 11 10 9 8 8 7 6 5 4 3
6 7 8 8 9 9 10 11 12 13 13 14 15 16 16 16 17 17 18 19 19 20 20 21 21 20 20 19 18 17 16 15 13 12 11 10 9 8 7 6 4 3 3
7 7 8 9 9 10 11 12 13 14 15 16 16 16 17 17 18 19 19 20 20 21 21 21 21 21 21 21 20 19 18 16 14 13 12 10 9 8 7 6 4 3 3
6 7 8 9 10 11 12 12 13 14 15 16 17 17 18 19 20 20 20 20 21 21 21 22 22 22 22 22 21 21 19 17 16 14 13 11 10 8 7 6 4 3 3
7 7 8 9 10 11 13 13 14 15 15 16 17 18 19 19 20 21 21 21 22 22 22 23 22 22 22 22 22 21 20 19 17 15 13 11 10 8 7 6 5 4 3
7 8 9 10 10 11 12 13 14 14 15 16 16 18 18 19 20 21 21 22 22 23 23 23 23 23 23 22 22 21 20 19 17 16 14 13 11 9 8 7 5 4 4
7 8 8 9 10 11 11 12 12 13 14 15 16 16 17 18 19 20 21 22 22 22 24 24 24 24 24 23 23 22 20 20 18 17 16 14 12 11 9 7 6 5 4
6 7 8 8 9 10 10 11 12 12 13 14 15 16 16 16 18 19 20 21 22 22 22 23 24 24 24 24 24 24 22 21 20 18 16 15 14 12 11 9 7 6 5
6 6 6 7 8 9 10 11 12 13 13 13 14 15 16 16 17 18 19 20 20 21 22 23 24 25 25 25 25 24 24 22 21 20 18 17 15 14 12 10 9 7 7
5 6 6 7 8 9 11 12 13 13 13 13 14 14 15 16 16 17 18 19 19 20 20 22 23 24 25 25 25 24 23 24 23 21 20 18 17 16 14 12 11 9 8
4 4 5 6 8 9 11 12 13 14 15 15 14 14 15 15 16 16 17 17 19 19 20 20 21 22 24 24 25 24 24 24 23 22 21 19 18 17 15 14 13 11 10
3 4 5 6 8 10 11 12 13 14 15 15 15 15 15 16 16 16 17 17 18 18 19 20 21 21 22 23 24 24 24 24 25 24 23 21 20 18 17 16 15 13 12
2 4 5 7 9 11 12 13 14 14 15 15 16 16 16 17 17 16 17 17 17 18 19 20 20 21 22 23 24 25 25 25 25 25 24 23 22 21 19 18 16 15 14
3 5 6 8 10 12 13 14 15 15 15 15 16 16 17 17 17 17 17 16 17 18 18 19 19 20 21 23 23 24 25 25 26 26 25 24 24 23 21 20 18 17 16
4 5 7 9 11 12 13 14 15 16 16 17 17 17 18 18 17 17 17 16 16 17 17 18 19 19 20 22 23 24 25 25 25 26 26 25 24 24 22 21 20 19 18
4 6 8 10 12 13 14 15 16 17 18 18 18 18 18 18 17 17 16 16 16 16 17 17 17 18 19 20 22 24 25 26 26 26 27 27 25 24 23 23 22 21 20
4 6 8 10 12 13 14 15 17 18 18 18 19 18 18 18 17 17 16 16 15 15 15 16 16 17 18 19 21 23 24 26 26 26 27 27 27 25 24 24 23 22 22
5 6 8 10 12 13 15 16 17 18 18 19 19 19 18 18 17 17 16 15 14 14 14 14 15 16 17 18 19 22 23 25 25 26 27 28 28 26 25 24 24 24 23
5 7 8 10 12 13 15 16 17 18 19 19 19 19 19 18 17 17 16 15 13 12 12 12 13 13 15 17 18 19 22 24 25 25 26 26 27 27 26 25 25 25 25
5 7 8 10 12 13 15 16 17 18 19 19 19 19 19 18 18 17 16 15 13 11 10 10 11 12 13 15 17 18 20 22 24 25 25 26 27 27 27 26 25 25 25
5 6 8 10 12 13 14 16 17 18 18 19 19 19 19 18 17 17 16 14 12 10 9 9 9 10 11 13 15 17 18 20 23 24 24 24 25 26 27 27 26 26 25
5 6 8 9 11 13 14 16 17 18 18 19 19 19 19 18 17 17 16 14 12 10 9 8 8 8 9 11 13 15 17 18 20 23 23 24 24 26 26 25 27 27 26
5 6 7 9 11 12 14 15 16 17 18 19 19 19 19 18 17 16 16 14 13 11 9 8 7 7 8 9 11 13 16 17 19 21 22 23 23 25 25 26 26 27 27
6 6 7 9 10 12 13 15 16 17 18 19 19 19 19 18 17 16 15 14 13 11 9 7 6 6 7 8 10 11 14 16 18 20 21 21 21 23 25 26 26 27 27
6 7 8 9 10 11 13 15 16 16 17 18 19 19 19 19 17 16 15 14 13 11 9 7 5 5 6 7 8 10 12 14 16 18 19 20 21 22 22 24 25 26 27

GEFSSE_500_meanwind_132.txt.gz
Wind_Speed
3 4 4 5 5 6 7 7 8 8 8 9 9 10 11 12 12 13 14 14 14 15 15 14 15 15 15 14 14 14 13 12 11 10 10 9 9 8 7 7 6 5 5
4 4 5 5 6 7 7 8 9 9 10 11 11 12 13 13 14 14 15 15 15 16 17 16 16 16 16 16 15 15 14 13 12 11 10 9 9 8 7 7 6 5 4
4 5 6 6 6 7 8 8 9 10 11 12 13 14 14 15 16 16 16 16 17 17 18 18 18 18 17 17 16 16 15 14 13 12 11 9 9 8 7 6 5 4 3
5 5 6 6 6 7 8 9 10 11 12 13 14 15 15 16 17 17 17 17 17 18 19 19 19 19 18 18 17 16 16 15 14 13 11 10 9 8 7 6 5 4 3
4 4 5 6 7 8 9 11 11 12 13 14 15 15 16 16 17 18 18 18 18 19 19 20 20 20 19 18 17 17 17 16 15 14 12 11 9 8 7 5 4 3 2
4 4 5 6 7 8 9 11 11 12 13 13 14 15 15 16 16 17 18 19 20 20 20 21 22 22 20 19 18 17 17 17 15 14 13 12 10 8 7 5 4 3 2
4 5 6 7 8 9 10 10 11 11 11 12 13 13 14 14 15 16 17 18 19 20 21 22 22 22 21 20 19 18 18 17 16 15 14 13 11 9 7 5 4 3 3
5 6 7 7 7 8 9 9 9 10 10 11 12 12 13 13 15 16 17 18 19 19 20 21 22 22 21 21 20 19 18 18 16 15 14 13 12 10 8 6 5 4 3
5 6 6 5 6 7 8 8 9 9 10 11 12 12 13 14 14 15 16 17 17 18 19 20 21 21 21 22 21 19 19 18 17 16 15 14 12 11 9 8 6 5 4
5 5 4 4 5 6 7 8 8 10 10 11 12 13 13 14 14 15 15 16 17 17 18 19 19 20 21 21 21 20 20 19 18 18 17 16 14 12 11 9 8 7 6
3 3 2 4 5 6 7 8 9 10 11 12 13 13 14 14 14 15 15 16 17 17 18 19 19 19 20 20 20 20 20 21 20 19 18 17 16 14 13 12 10 9 8
3 2 2 3 5 6 8 9 10 11 12 13 13 14 14 15 15 15 15 16 16 17 18 19 19 20 20 20 21 20 20 21 21 20 19 18 17 15 14 13 12 11 10
2 2 2 4 5 6 8 10 11 12 12 13 14 15 15 15 15 16 16 16 17 17 18 19 19 20 20 20 21 20 21 21 21 21 20 20 19 17 16 14 14 13 12
2 2 2 4 5 7 9 10 11 12 13 14 15 15 15 16 16 16 16 17 17 17 17 18 18 19 20 20 20 20 20 21 21 22 21 21 20 19 18 16 15 14 14
2 2 3 4 6 7 9 11 12 13 14 14 15 15 16 16 17 17 16 16 17 17 17 17 17 18 19 20 20 20 21 21 21 22 23 22 21 20 19 19 17 16 15
3 3 3 5 6 8 10 11 12 13 14 15 15 15 16 16 17 17 17 16 16 16 16 16 16 17 18 19 20 20 21 21 22 22 23 23 23 22 21 20 19 18 17
3 3 4 5 6 8 10 11 13 13 14 15 16 16 16 16 16 17 17 16 16 15 15 15 16 16 17 18 19 20 21 21 23 22 23 23 23 24 23 20 20 20 19
3 3 4 5 6 8 10 12 13 14 15 16 16 16 16 17 17 17 17 16 15 15 15 15 15 15 16 17 18 19 20 21 22 23 23 24 25 25 24 23 21 21 21
3 3 4 5 6 8 10 12 14 14 15 16 17 17 17 17 17 17 17 17 16 15 14 14 14 14 14 16 17 18 19 20 22 23 24 24 25 25 25 24 23 22 22
4 4 4 6 7 8 10 12 14 15 16 17 17 18 17 18 18 18 17 17 16 15 13 13 13 13 13 14 15 17 18 19 21 23 24 25 26 25 25 24 24 23 23
4 4 5 6 7 8 10 12 14 15 17 17 18 18 18 18 18 18 17 17 16 15 13 12 12 12 12 13 14 15 17 19 21 23 24 25 25 25 25 26 25 24 24
4 5 5 6 7 8 10 12 14 15 17 18 18 18 18 18 18 18 17 16 16 14 13 12 11 10 11 11 12 13 16 17 19 21 24 25 25 25 26 26 26 25 25
5 5 5 6 7 8 10 11 13 15 17 17 17 18 19 19 18 18 17 16 15 14 13 11 10 9 9 10 10 12 14 16 18 19 22 23 24 25 25 26 26 26 25
5 6 6 6 7 8 10 11 13 15 16 17 17 18 18 18 18 18 17 16 15 13 12 11 9 8 8 9 9 10 12 14 17 17 19 21 23 24 24 25 26 26 26
6 6 6 6 7 8 9 11 13 14 16 17 17 17 18 18 19 18 17 16 15 13 12 11 8 7 6 7 8 9 10 12 14 16 18 20 21 23 24 24 25 25 25
6 6 7 7 7 8 9 11 13 14 15 16 17 17 17 18 19 18 17 16 15 14 12 10 8 6 5 5 6 8 9 11 13 15 17 18 19 21 22 23 23 24 25

GEFSSE_500_meanwind_138.txt.gz
Wind_Speed
2 2 2 2 2 3 3 3 4 5 6 7 7 8 9 10 11 12 13 12 12 11 11 11 10 10 10 10 10 9 8 8 7 6 6 5 5 4 4 4 4 4 4
3 2 2 2 2 2 3 4 5 6 7 8 9 9 10 11 12 13 13 13 13 13 12 12 12 11 11 11 11 11 10 9 8 7 7 6 6 5 4 4 4 4 4
3 3 3 3 2 3 4 5 6 7 8 9 10 11 11 12 12 13 13 13 13 14 14 13 13 13 13 13 12 12 12 11 10 9 8 7 6 5 5 4 4 3 3
4 4 3 3 3 3 5 6 7 8 9 10 10 11 12 12 13 13 13 14 14 15 15 14 14 14 14 14 14 13 12 11 10 10 9 9 8 7 6 5 4 3 3
4 4 3 3 3 4 5 7 8 9 9 10 10 11 12 12 12 13 14 14 15 15 15 15 15 15 15 15 15 14 13 12 11 11 10 9 8 8 7 6 5 4 3
4 3 3 4 4 5 6 7 8 9 9 9 10 11 11 11 12 12 12 13 14 14 14 15 15 16 16 15 15 15 14 13 13 12 11 10 9 9 8 7 6 5 4
3 3 4 4 5 6 6 7 8 8 8 9 10 10 10 11 12 12 12 13 13 14 14 15 16 15 16 15 16 16 15 14 13 13 12 11 10 10 9 8 7 6 5
3 3 4 4 4 5 6 7 7 7 8 9 9 10 10 11 11 12 13 13 13 14 14 15 16 16 16 17 16 16 16 15 15 14 13 12 11 11 10 10 8 7 6
4 3 4 4 4 4 5 6 6 7 8 9 9 10 11 11 12 12 13 13 13 13 14 15 15 16 16 17 16 16 16 16 16 15 14 13 12 12 11 11 10 9 7
3 3 4 3 3 4 5 6 6 7 8 9 10 11 12 12 12 13 13 13 13 14 14 15 16 16 16 16 17 17 17 17 17 16 15 14 13 13 13 13 11 10 8
4 3 3 3 3 4 5 6 7 8 9 10 11 12 13 13 13 13 13 14 14 14 15 15 16 16 16 16 16 17 17 18 18 18 16 15 15 14 14 14 13 11 10
4 3 3 3 4 4 5 6 7 9 10 11 12 13 13 13 13 13 14 14 15 15 15 15 16 16 17 17 17 17 17 18 19 19 18 17 17 16 15 15 14 13 11
4 4 4 3 4 4 5 7 8 10 11 12 13 13 13 13 13 14 14 15 15 15 16 16 16 17 17 17 18 18 17 18 19 19 20 19 18 18 17 16 15 14 13
4 4 3 3 4 5 6 8 9 11 12 13 13 13 13 14 14 14 15 15 15 15 16 16 16 16 17 17 18 19 19 19 20 19 20 21 20 19 19 18 17 16 15
4 4 3 4 5 6 7 8 10 11 13 13 14 14 14 14 14 14 15 15 15 16 16 16 16 17 17 17 18 18 19 19 20 20 20 21 22 21 20 20 18 17 17
4 4 4 5 6 6 7 9 10 11 12 13 14 14 14 14 14 14 15 15 15 15 15 15 15 16 17 17 18 18 19 19 21 22 21 21 23 23 22 21 19 19 19
4 4 4 5 6 7 8 9 10 11 13 13 14 14 14 14 14 14 15 15 15 15 14 14 14 15 16 16 17 18 19 19 21 22 22 22 23 24 23 22 21 20 21
5 4 5 6 6 7 8 9 10 11 12 13 14 14 14 14 14 15 15 16 16 15 15 14 14 14 14 15 16 17 18 19 20 22 23 23 23 24 24 23 23 22 22
5 5 5 6 6 7 9 9 10 11 12 13 13 14 15 15 15 16 16 16 16 15 15 14 13 13 13 13 14 16 17 19 20 22 23 24 24 25 25 24 24 23 23
6 5 6 6 7 8 9 10 11 11 12 13 13 14 15 16 16 16 16 16 16 15 14 13 12 12 12 12 13 14 16 17 19 21 23 24 24 26 26 25 24 24 24
6 6 6 7 7 8 9 10 11 11 12 13 13 15 16 16 17 17 16 16 16 15 13 12 11 10 10 11 12 13 15 16 18 20 22 24 24 26 26 27 25 25 24
7 7 7 7 8 9 9 10 11 12 12 13 14 15 16 16 17 17 17 16 16 15 13 12 10 9 9 10 11 12 14 15 17 19 21 24 24 25 26 27 26 25 24
7 8 7 7 8 9 10 10 11 12 12 13 14 15 16 17 17 17 17 16 16 15 13 12 10 9 8 8 9 10 11 13 16 18 21 23 24 25 26 27 26 26 25
8 8 8 8 9 9 10 10 11 12 12 13 14 15 16 17 17 17 17 17 16 15 13 12 10 8 7 6 7 8 9 11 14 17 19 22 23 24 26 27 26 26 26
8 8 9 9 9 10 10 10 11 11 12 13 14 14 16 17 17 17 17 16 15 14 13 11 9 7 6 5 5 6 8 9 12 15 18 20 22 24 25 26 26 25 25
8 8 9 9 10 10 10 10 11 11 12 13 14 14 15 16 17 17 17 16 15 14 13 11 9 7 5 4 5 6 7 9 11 13 15 17 20 23 24 26 27 26 25

GEFSSE_500_meanwind_144.txt.gz
Wind_Speed
4 4 4 3 3 3 3 3 4 4 5 6 6 7 8 9 9 10 10 11 11 11 12 12 11 11 11 10 10 10 9 9 9 8 8 7 6 5 5 5 4 4 4
4 4 4 3 3 3 4 4 5 6 6 7 8 9 10 9 10 12 11 11 11 11 12 11 11 11 11 11 11 10 10 10 10 9 9 8 7 6 6 5 5 5 4
4 3 3 3 3 4 4 5 6 7 7 8 9 9 9 9 11 12 12 12 12 12 13 12 12 12 12 12 12 12 11 10 10 10 10 9 8 7 7 6 5 4 4
4 4 4 4 4 4 5 5 6 7 8 8 9 9 10 10 11 12 12 12 12 12 12 12 12 12 13 12 12 12 12 12 11 11 11 9 9 8 8 7 6 5 4
5 4 4 5 5 5 5 6 6 7 8 9 9 10 10 10 11 11 12 12 12 12 12 12 12 13 13 13 13 13 12 13 12 11 11 10 9 9 8 8 6 5 5
5 5 4 4 4 5 5 6 7 7 8 9 10 11 11 11 11 11 11 11 12 12 12 12 12 12 13 13 14 13 13 13 13 13 12 10 10 9 9 9 8 6 6
5 4 3 4 4 5 5 5 6 8 9 9 10 10 10 11 11 12 12 11 11 11 11 12 13 13 13 13 13 14 14 14 13 14 12 11 10 10 10 9 9 7 6
4 4 4 4 5 5 5 5 6 7 8 9 10 10 11 11 12 12 12 12 12 11 12 12 13 14 14 14 13 13 14 14 14 14 14 12 11 11 11 10 9 9 7
4 4 4 4 5 5 5 6 7 7 8 9 10 10 11 12 12 12 12 11 11 12 12 13 13 14 15 15 14 14 14 15 14 14 14 14 12 12 11 11 10 9 8
4 3 3 4 4 4 5 6 7 8 9 9 10 11 12 12 13 13 12 12 12 12 12 13 13 14 15 15 15 15 15 15 15 15 14 15 14 13 12 11 10 10 9
4 4 3 3 3 4 5 7 7 8 9 10 11 12 13 13 13 13 12 13 13 13 13 13 14 14 15 15 15 16 16 16 16 16 15 15 15 14 13 12 11 11 10
4 3 3 3 4 5 6 7 8 9 10 11 12 12 13 14 14 14 13 13 13 13 14 14 14 14 14 15 15 15 16 16 16 16 16 16 16 14 14 13 12 12 11
4 3 3 3 4 5 6 7 8 9 10 11 12 13 14 14 14 14 14 14 14 14 14 14 14 14 14 14 14 15 16 16 16 16 17 17 17 16 15 14 14 13 12
3 2 3 4 4 5 6 7 8 9 11 12 13 14 14 14 14 14 14 14 14 14 15 15 14 14 14 15 14 15 15 15 15 16 17 17 17 17 16 15 15 15 14
3 3 3 4 4 5 6 8 9 10 11 12 14 15 14 14 14 14 15 15 15 15 15 14 14 15 15 15 15 15 14 15 15 16 16 18 18 18 17 17 16 16 14
3 3 3 4 5 6 7 8 10 11 12 13 14 15 15 15 15 15 16 16 16 16 15 15 15 15 14 15 15 15 14 15 15 16 16 17 18 19 18 18 17 17 16
3 3 4 4 5 6 7 9 10 11 13 13 14 14 15 16 16 16 17 17 16 16 16 15 15 15 14 14 14 14 14 15 15 16 17 17 18 19 19 19 19 18 17
3 3 4 4 5 6 8 9 10 12 13 14 14 15 16 16 17 17 17 17 17 16 16 15 14 14 13 13 13 13 14 14 15 16 17 18 18 19 20 20 20 19 19
3 3 4 5 6 7 8 9 11 12 13 14 14 15 16 17 17 17 17 17 17 16 16 14 14 13 12 12 12 12 13 14 14 16 17 18 18 19 20 21 21 21 20
4 4 5 5 6 7 8 9 11 12 13 14 14 15 16 17 18 18 18 17 17 16 15 14 13 12 11 10 10 11 12 12 14 16 17 18 18 18 19 21 21 22 21
4 5 5 6 7 8 8 10 11 12 13 14 14 15 17 17 18 18 18 17 17 17 16 14 13 12 11 10 9 10 11 11 12 14 16 17 18 18 19 21 21 22 22
5 5 6 7 7 8 9 10 11 12 13 13 14 15 16 17 18 18 18 17 17 17 16 15 14 12 10 9 8 9 9 10 11 12 14 16 17 18 19 20 22 21 22
5 6 7 7 8 8 9 10 11 12 13 13 14 15 16 17 18 18 18 17 17 17 16 15 14 12 10 9 8 7 8 9 10 11 12 15 17 18 19 20 22 22 22
5 6 6 7 8 8 9 9 11 12 12 13 14 15 16 17 18 17 17 17 17 17 17 15 13 12 10 9 8 7 7 7 9 10 11 14 16 17 19 20 21 21 22
5 5 6 7 7 8 9 9 11 12 13 13 14 15 15 17 17 17 17 17 16 16 16 15 13 12 10 9 8 7 7 7 7 9 10 12 14 15 17 20 21 21 22
4 5 6 7 7 8 9 9 11 12 13 13 14 15 15 16 17 17 17 16 16 16 16 15 13 12 10 9 8 7 7 6 7 8 9 11 12 14 16 18 20 21 21

GEFSSE_500_meanwind_150.txt.gz
Wind_Speed
3 3 2 1 0 1 1 1 2 3 4 5 6 6 7 7 8 8 9 9 9 9 10 11 11 11 12 12 12 12 12 11 10 10 10 9 9 8 7 7 6 6 5
3 2 2 1 0 1 1 2 3 4 4 5 6 7 8 8 8 9 10 9 10 9 9 10 11 11 12 12 11 12 12 12 11 10 10 10 9 9 8 8 7 6 6
3 3 2 1 1 2 2 3 3 4 5 5 7 8 8 8 8 9 10 10 9 9 9 9 10 11 11 11 11 11 11 11 11 11 10 10 10 9 9 8 7 7 6
3 3 2 1 1 2 2 3 3 4 5 6 7 8 8 8 8 9 10 10 10 10 10 10 10 11 11 11 11 11 11 10 11 11 11 10 10 9 9 9 8 7 6
3 3 2 2 1 1 2 3 4 4 5 6 7 8 8 8 8 9 9 9 9 9 9 10 10 10 11 11 11 12 11 11 11 11 11 10 10 9 9 8 8 8 7
3 3 2 1 1 1 2 3 4 5 6 7 7 7 8 8 8 8 9 9 9 9 10 10 11 11 11 11 11 12 12 12 12 11 11 11 10 10 9 9 9 8 8
3 3 2 1 1 2 3 4 5 5 6 6 7 7 8 8 8 9 9 9 9 9 9 10 11 11 12 12 11 12 12 13 13 12 11 11 10 10 9 9 9 9 9
3 3 2 2 2 2 3 4 5 5 5 6 6 6 7 8 8 9 10 9 9 9 10 10 11 12 12 12 12 12 12 13 12 13 12 11 11 11 10 9 9 9 9
3 3 2 2 2 2 3 3 4 5 5 6 6 7 7 8 9 9 10 10 10 10 10 11 11 12 12 13 13 13 13 13 13 13 13 12 12 11 11 10 10 9 10
4 3 2 2 2 2 3 3 4 5 6 6 7 8 8 8 9 10 10 10 10 10 11 11 11 11 12 12 13 13 13 13 13 13 14 13 12 12 12 11 10 10 10
4 3 3 2 2 2 3 3 4 5 6 6 7 8 8 9 10 11 11 11 11 11 11 11 11 11 11 11 12 12 13 13 13 13 14 14 13 13 13 12 11 10 10
4 3 3 2 2 3 3 4 4 5 6 7 7 8 9 10 10 11 11 11 11 11 11 11 11 11 11 11 12 12 12 13 13 13 14 14 14 14 14 14 13 12 11
4 4 3 2 2 3 3 3 5 5 6 7 8 9 9 10 10 11 11 12 11 11 12 12 12 11 12 11 11 12 12 12 13 14 14 14 15 15 15 14 14 13 12
5 4 3 2 2 2 3 4 5 6 7 7 8 8 9 10 10 11 12 12 12 12 12 12 12 12 12 12 12 12 12 12 13 13 14 14 15 16 15 15 15 14 13
5 4 2 2 1 1 2 4 5 6 6 7 8 8 9 10 11 11 12 12 13 13 13 12 12 12 11 11 11 12 12 12 12 13 13 14 15 16 16 16 16 15 14
4 3 1 1 0 2 3 4 5 5 6 7 7 8 9 11 12 13 13 13 13 13 13 13 12 12 11 10 10 11 12 12 12 12 13 14 14 15 16 16 16 16 15
4 2 1 1 1 2 2 3 4 5 6 7 7 8 10 11 13 14 14 14 14 13 13 12 12 11 10 10 10 10 11 11 12 12 13 14 14 15 16 16 16 17 16
4 3 2 1 1 2 2 3 5 6 6 7 8 9 11 12 13 14 14 15 14 13 13 12 11 11 10 10 9 10 10 11 11 12 13 14 15 16 16 17 18 17 17
3 2 2 1 1 2 3 4 5 6 7 8 9 10 11 12 13 14 15 15 14 14 13 13 12 11 10 9 9 9 10 11 11 12 12 14 15 16 17 17 18 18 18
4 3 2 1 1 2 3 4 5 6 7 9 10 11 12 13 13 14 15 15 14 14 14 13 12 11 10 9 9 9 9 10 11 12 12 13 14 15 16 17 18 19 19
4 3 2 1 2 2 3 4 5 7 8 9 10 11 12 13 14 14 15 15 14 14 14 13 12 11 9 8 8 8 8 9 10 12 12 12 14 14 15 17 18 19 20
5 3 2 2 2 3 4 5 6 7 8 9 10 11 12 13 14 14 14 15 15 15 14 13 12 10 9 7 7 6 7 8 9 10 12 12 13 14 15 17 18 19 21
5 3 3 2 2 3 4 5 6 7 8 9 10 11 12 13 14 14 14 15 14 14 14 13 12 10 8 7 6 5 6 7 8 9 11 12 13 14 15 16 18 19 20
4 3 2 2 3 4 4 5 6 7 8 9 10 11 12 12 13 14 15 15 14 14 13 13 12 10 9 7 6 5 5 5 6 8 9 11 13 14 15 16 17 18 20
4 3 2 2 3 4 4 5 6 7 8 9 10 11 11 12 13 14 14 14 14 14 13 12 12 11 9 7 6 5 4 4 5 6 8 10 12 13 14 15 17 18 19
4 3 3 3 4 4 5 6 6 7 8 9 10 10 11 12 13 13 13 14 14 14 13 12 12 11 9 8 7 6 4 4 4 5 7 9 10 12 13 14 16 17 18

GEFSSE_500_meanwind_156.txt.gz
Wind_Speed
2 2 2 1 0 1 1 2 2 3 4 4 5 6 6 7 7 7 7 7 7 8 9 8 9 9 9 9 9 9 9 9 8 8 8 7 7 6 6 5 5 5 5
1 2 2 2 1 0 1 2 3 4 4 5 6 6 7 8 8 8 8 8 8 8 8 8 9 9 9 9 9 8 8 9 8 8 8 7 7 7 7 6 6 6 6
2 2 2 2 1 1 2 2 3 4 5 5 6 7 8 8 8 8 8 8 8 8 8 9 9 9 9 9 9 9 9 9 8 8 8 8 8 8 7 7 7 7 7
2 3 3 2 1 0 2 2 3 4 5 6 7 7 8 8 8 8 9 9 8 8 8 9 9 9 9 9 9 9 9 9 9 9 9 9 8 8 8 7 7 7 6
4 3 3 2 1 1 2 3 4 5 6 6 7 8 8 8 8 9 9 9 8 8 8 9 9 9 9 9 9 9 9 10 10 9 9 9 9 8 8 8 7 6 6
4 4 3 2 1 1 2 3 4 5 6 6 7 8 8 8 8 9 9 9 8 8 9 9 9 9 9 9 9 10 10 10 10 10 10 10 9 8 8 8 8 7 6
5 4 3 3 2 1 2 3 4 5 6 6 7 8 8 8 8 9 9 10 9 9 9 9 10 10 10 10 10 10 10 10 10 10 10 10 9 9 8 8 8 7 7
5 5 4 3 2 1 2 3 4 5 5 6 7 7 8 9 9 9 10 10 10 10 10 9 10 9 10 11 10 10 11 10 10 10 10 10 10 9 9 8 8 8 8
5 5 5 4 2 1 2 3 3 4 5 6 7 8 8 9 10 10 10 10 10 10 10 9 9 9 10 10 11 11 10 10 10 10 10 10 10 10 10 9 9 9 9
5 5 5 3 2 2 2 3 3 4 5 6 7 8 8 9 10 10 10 10 10 10 10 10 9 9 10 10 10 10 10 10 10 10 10 10 11 11 11 10 10 10 10
6 5 5 3 3 2 3 3 3 4 5 6 7 8 9 10 10 10 10 10 10 11 10 10 9 9 10 10 10 10 9 9 10 10 10 10 10 11 11 11 11 11 12
6 5 4 4 3 3 3 3 4 4 6 7 8 9 9 10 10 10 11 11 11 11 11 10 10 10 10 10 10 10 9 9 9 10 10 10 11 11 11 12 12 12 13
6 5 4 4 4 3 3 4 4 5 6 7 8 9 9 9 10 11 11 11 11 11 11 11 10 10 10 10 10 10 10 10 10 9 10 11 11 11 12 12 12 13 13
6 5 4 4 3 3 3 4 5 6 7 7 8 9 9 9 10 11 11 12 12 12 11 11 11 10 10 10 10 10 10 10 10 10 10 10 11 12 13 13 13 13 14
6 5 5 4 3 3 3 4 5 6 7 7 8 8 9 9 10 11 12 12 12 12 12 12 11 11 10 10 10 9 9 9 9 10 11 11 11 12 13 13 13 13 14
6 5 4 4 3 3 3 4 5 6 6 7 7 8 9 10 11 11 12 13 13 13 12 12 11 11 10 10 10 10 9 9 9 9 11 12 12 12 13 13 13 14 14
6 5 4 3 3 2 3 3 4 5 6 6 7 8 9 10 11 12 12 13 13 13 13 11 10 10 10 9 9 9 10 9 9 9 10 12 12 13 13 14 14 14 15
6 6 4 3 2 1 2 3 4 5 6 7 8 8 9 10 11 12 13 13 13 13 12 11 10 10 9 8 9 9 9 9 10 10 10 11 12 12 13 14 14 14 14
6 5 4 3 2 1 2 3 4 5 6 8 8 9 10 10 11 12 13 13 13 13 13 12 11 10 9 8 8 8 8 9 9 10 11 11 12 12 13 14 14 15 15
6 5 4 3 2 2 3 4 4 5 7 8 9 9 10 11 12 13 13 14 14 13 13 12 11 10 9 8 8 8 8 8 8 9 10 10 11 11 13 13 14 15 16
6 4 4 4 3 2 3 4 5 6 7 8 9 10 11 11 12 13 14 14 14 13 13 12 11 11 9 8 7 7 7 7 8 9 9 10 10 11 12 13 14 14 15
6 5 4 3 3 3 3 4 5 6 7 8 9 10 11 11 12 13 14 14 14 13 13 12 11 11 10 8 7 6 6 6 7 8 9 9 10 11 12 13 14 14 15
6 5 4 4 4 4 4 4 5 6 7 8 9 10 11 11 12 13 14 14 14 13 13 13 12 11 10 8 7 5 5 5 6 7 8 9 9 11 12 13 14 15 15
6 5 4 4 3 3 4 4 5 6 8 9 9 10 11 12 12 13 14 14 14 13 13 13 12 11 10 9 7 6 4 4 4 6 7 8 9 10 12 13 14 15 15
6 5 5 4 4 4 4 5 6 7 8 9 10 10 11 12 12 13 14 14 13 13 13 12 12 12 11 9 8 6 5 3 3 5 6 7 9 10 11 13 14 15 15
6 6 5 4 4 5 5 5 6 7 8 9 10 10 11 12 12 13 13 13 13 13 12 12 12 12 11 10 8 7 6 4 4 4 5 7 8 9 11 13 14 14 15

GEFSSE_500_meanwind_162.txt.gz
Wind_Speed
4 4 3 3 2 2 3 2 2 2 1 2 2 3 3 3 3 3 3 4 3 3 4 4 4 4 4 4 5 5 5 5 5 6 6 6 6 6 6 6 6 6 7
4 4 4 3 2 2 2 1 1 1 1 2 2 3 3 4 3 3 4 4 3 3 3 4 4 4 4 5 5 5 5 6 6 6 6 6 6 6 7 7 7 7 7
5 4 3 2 2 1 1 1 1 1 1 2 3 3 4 4 4 3 4 4 4 4 4 4 4 5 5 5 5 6 6 6 7 7 7 7 7 7 7 8 8 8 8
5 4 3 2 1 1 2 1 0 1 2 3 4 4 4 4 4 4 5 5 4 4 5 5 5 5 5 5 6 6 6 7 7 7 7 7 8 8 8 9 9 9 9
5 4 3 2 2 2 1 0 1 2 3 3 4 5 5 5 5 5 6 5 5 4 5 5 5 5 5 5 6 6 6 7 7 7 8 8 8 8 9 9 9 9 9
6 4 3 3 3 2 0 0 1 2 3 4 4 5 5 6 6 6 6 6 5 5 5 5 5 6 6 6 6 6 6 7 7 8 8 9 9 9 9 9 9 10 9
6 5 4 3 2 1 1 1 2 2 3 4 4 5 6 6 7 7 6 6 6 6 6 6 6 6 7 7 7 7 7 7 7 7 8 10 10 10 10 10 10 10 9
6 5 4 4 3 2 1 1 2 2 3 4 5 6 6 7 7 7 7 7 7 7 7 6 6 7 7 7 7 7 7 7 7 7 8 9 10 10 10 10 10 10 10
7 6 5 4 4 2 2 2 2 2 3 4 5 6 7 8 8 8 8 7 7 7 7 7 7 8 7 7 7 8 8 8 8 8 8 9 10 11 10 10 11 11 11
7 6 6 5 4 3 2 2 1 2 3 4 5 6 7 8 8 9 8 8 8 8 8 7 7 7 7 7 7 8 8 8 8 9 9 9 10 11 11 11 11 12 12
7 7 6 4 4 3 2 2 2 3 4 5 6 7 8 8 9 9 9 9 8 8 8 8 7 7 7 8 8 8 8 8 8 9 9 10 11 11 11 11 11 13 13
8 7 5 4 4 3 2 3 3 3 4 5 6 7 8 9 9 9 9 9 9 9 9 8 8 8 8 8 8 8 8 8 8 8 9 10 11 12 12 12 12 13 13
8 7 6 5 4 3 2 3 3 4 5 6 7 8 8 9 10 10 10 10 9 9 9 9 9 8 8 8 8 8 8 8 8 9 9 9 11 12 12 13 13 13 13
7 7 6 5 4 4 3 3 3 4 5 6 7 7 8 9 10 10 10 10 10 10 10 10 9 9 8 9 9 9 8 8 8 9 9 9 10 12 12 12 13 13 14
7 6 6 5 4 4 3 3 3 4 6 7 7 7 8 9 10 10 10 10 10 10 10 10 9 9 8 9 10 10 9 9 9 9 9 10 10 11 12 13 14 14 15
7 6 5 5 4 3 3 3 3 4 5 6 6 7 8 9 10 10 11 11 11 11 11 10 9 9 8 9 9 9 9 10 10 10 10 10 10 11 13 13 13 14 15
7 6 5 4 3 3 2 2 2 4 5 6 6 7 9 10 10 11 11 11 11 11 11 10 9 8 8 8 8 9 9 10 11 11 11 11 11 12 13 13 14 14 15
6 6 5 4 3 2 2 2 3 3 4 5 6 8 9 10 10 11 11 11 11 11 11 10 9 8 7 7 7 8 9 9 11 11 11 12 12 12 12 13 14 14 16
6 5 5 4 4 2 2 2 2 3 4 5 7 8 9 10 10 11 11 11 11 11 10 10 9 7 7 6 7 7 8 8 9 10 11 12 13 13 12 12 14 15 16
6 5 5 4 4 3 2 2 2 3 4 6 7 8 9 9 10 10 11 11 11 11 10 9 9 8 7 6 6 6 7 8 8 9 10 12 13 13 12 13 13 15 16
7 5 5 5 4 3 2 2 2 3 4 5 7 8 8 9 10 10 10 11 11 11 10 10 9 8 7 6 6 6 6 6 8 8 9 11 12 12 13 13 14 15 15
6 5 5 4 4 3 3 2 2 3 4 5 6 7 8 9 10 10 10 11 11 10 10 10 9 8 7 6 5 5 5 5 6 7 8 9 11 12 13 13 13 14 15
7 5 5 4 4 4 3 2 2 3 4 5 6 7 8 9 9 10 10 10 11 11 10 10 10 9 8 7 6 5 4 4 5 6 7 8 9 11 12 13 13 13 14
7 6 5 4 4 4 3 2 2 3 4 5 6 7 8 8 9 10 10 10 10 11 10 10 10 9 8 7 6 5 4 3 3 5 6 7 9 10 11 12 13 13 14
7 6 5 5 4 4 3 3 3 3 4 5 6 7 8 8 9 9 10 10 11 11 10 10 10 9 8 7 6 5 4 3 3 4 5 7 8 10 11 12 13 14 14
7 6 5 5 4 4 4 3 3 4 5 6 6 7 7 8 8 9 9 10 10 11 11 10 10 9 8 8 7 6 4 4 3 4 5 6 8 9 11 12 13 14 14

GEFSSE_500_meanwind_168.txt.gz
Wind_Speed
3 3 3 1 1 2 1 2 2 1 1 2 2 3 3 3 3 3 3 3 3 3 3 4 4 4 4 4 5 5 5 5 6 6 6 6 6 6 6 6 6 6 6
4 3 2 1 1 1 2 2 1 1 1 2 3 3 3 3 3 4 3 3 4 3 3 4 4 4 5 5 5 6 6 6 6 6 6 7 6 7 7 7 7 7 7
4 4 3 1 1 1 1 2 1 1 2 2 3 4 3 3 4 4 4 4 4 4 4 4 4 4 4 4 5 5 6 6 6 6 6 7 7 7 7 8 8 8 8
4 4 3 1 0 1 2 2 1 1 2 3 4 4 4 4 5 4 5 5 4 5 5 5 4 4 4 4 5 6 6 6 6 6 7 7 8 8 8 8 8 9 9
5 4 3 2 1 1 1 1 1 2 3 4 5 5 5 5 5 5 5 5 5 5 5 5 5 5 5 5 5 6 6 7 7 7 7 8 8 8 8 9 9 9 9
5 4 3 2 1 0 0 1 1 2 4 5 5 5 5 6 7 6 5 6 6 6 6 6 6 6 6 6 6 6 7 7 7 8 8 8 8 8 8 9 9 9 9
6 5 4 2 1 1 1 1 2 3 4 5 5 6 6 7 7 6 6 6 6 6 7 6 7 7 7 7 6 7 7 7 7 8 8 9 9 9 10 9 10 9 9
7 5 4 2 1 0 0 1 2 3 4 5 6 7 7 7 7 7 7 7 7 7 7 7 7 7 7 7 7 7 7 7 7 8 8 9 9 9 9 10 10 10 9
7 5 4 3 1 1 1 2 2 3 4 5 6 7 7 8 8 8 8 8 7 7 7 7 6 7 7 7 7 7 8 7 7 8 8 9 9 9 9 9 10 9 9
6 5 4 3 2 2 2 2 3 3 4 5 5 6 7 8 8 9 9 8 8 7 7 6 6 6 7 7 7 7 8 8 8 8 8 9 9 10 10 9 10 10 9
6 5 3 2 1 2 3 3 3 3 4 5 6 7 8 8 9 9 9 8 8 8 7 7 7 7 7 7 8 8 8 8 8 8 8 9 10 10 10 10 10 10 10
5 4 3 3 3 3 3 4 4 4 5 6 7 8 8 8 9 9 9 8 8 8 8 7 7 7 7 8 8 8 8 8 8 8 8 8 9 10 11 11 11 10 10
5 4 3 4 3 3 3 4 4 4 5 6 7 8 8 8 8 9 9 8 8 8 8 8 8 8 8 8 8 8 8 8 8 8 9 9 9 9 10 11 11 11 11
6 5 4 3 3 3 3 3 4 5 6 6 8 8 8 8 8 9 9 9 9 9 9 9 8 8 8 8 8 8 8 8 8 8 8 9 9 10 10 11 11 11 11
6 5 4 3 3 3 3 3 4 5 6 6 7 8 8 8 8 9 9 9 9 9 9 9 9 8 8 9 8 8 8 8 8 8 8 9 9 9 10 11 11 12 11
5 4 4 3 2 3 2 3 4 5 5 6 6 7 8 8 8 9 9 10 10 10 10 10 9 8 8 8 8 8 8 8 8 8 9 9 9 9 10 11 12 12 11
5 4 3 3 3 2 2 3 3 4 5 5 6 7 8 9 9 9 10 10 10 11 11 10 9 8 7 7 7 7 8 8 8 8 9 9 10 9 10 10 11 11 11
4 4 2 2 2 2 2 3 4 4 4 5 6 7 8 9 9 10 10 11 11 11 11 10 9 7 7 6 6 6 7 7 7 8 8 9 9 10 10 10 11 11 11
4 3 3 3 3 2 2 3 3 3 4 5 6 7 8 9 9 10 11 11 11 11 11 10 9 8 7 6 6 6 6 6 6 7 7 8 9 10 10 10 10 11 11
4 3 3 3 3 2 2 3 3 3 4 5 6 7 8 9 9 10 11 11 11 11 11 10 9 8 7 6 6 6 6 5 5 6 7 7 8 9 10 10 10 11 11
4 3 3 3 3 3 3 3 3 3 4 5 6 7 8 9 10 10 11 11 11 12 11 11 10 9 8 7 6 5 5 4 5 5 6 6 7 8 9 9 10 11 12
5 5 5 4 3 3 3 3 3 3 4 4 6 7 8 8 9 10 10 11 11 11 12 11 10 9 8 7 6 6 5 4 4 5 5 6 7 7 9 9 10 10 12
5 5 4 4 4 4 3 3 3 3 4 5 6 7 7 8 9 10 10 10 11 11 12 12 11 10 9 7 6 6 5 5 4 4 5 6 6 7 8 9 9 10 11
6 5 5 5 4 4 3 3 3 3 4 5 5 6 7 8 8 9 10 10 11 11 11 11 11 10 9 8 7 6 6 5 5 4 4 5 6 7 8 9 9 10 11
6 6 6 5 4 4 4 4 4 4 4 5 5 6 7 7 8 9 9 10 11 11 11 11 11 10 9 9 8 7 6 6 5 5 5 5 6 7 8 9 10 10 11
7 7 7 6 5 4 5 4 5 4 4 5 5 6 6 7 8 8 9 10 11 11 11 11 11 10 9 9 8 8 7 6 6 6 6 6 7 7 8 9 10 11 11

GEFSSE_500_meanwind_174.txt.gz
Wind_Speed
2 2 2 2 3 3 2 2 2 1 2 1 0 1 1 2 3 2 2 3 3 3 4 4 4 4 5 6 6 6 6 6 6 6 6 6 6 7 7 8 7 7 7
3 2 2 2 2 2 2 2 2 2 1 1 1 1 2 2 3 3 3 3 3 4 4 5 5 5 5 6 6 6 6 6 6 7 7 7 7 8 8 8 8 8 8
3 2 2 2 2 3 3 3 2 2 1 0 1 2 3 3 3 4 4 4 4 4 4 4 5 5 5 5 6 6 6 7 7 7 7 7 7 8 8 8 8 8 9
3 3 3 3 2 3 3 3 3 2 1 1 2 2 3 3 3 4 4 4 5 5 5 5 5 5 5 5 5 6 6 7 7 7 7 7 7 8 8 8 8 8 9
4 3 3 2 2 2 2 2 2 1 1 1 2 3 3 4 3 4 4 5 5 5 5 6 6 6 6 5 5 6 6 6 7 7 7 8 7 8 8 9 9 8 8
4 3 3 3 2 2 2 2 1 1 1 2 2 3 3 4 4 4 4 5 6 6 6 6 6 6 6 6 6 6 7 7 7 7 7 8 8 8 9 9 9 9 8
4 4 4 4 3 2 1 1 1 1 1 2 3 4 4 5 5 4 5 5 6 6 6 7 7 7 6 6 6 6 7 7 8 8 8 8 9 9 9 10 10 9 9
5 5 5 4 3 2 1 1 1 1 2 2 3 4 4 5 5 5 5 6 6 6 6 7 7 6 6 6 6 7 7 7 7 7 8 8 9 9 10 10 10 9 9
6 5 5 4 3 2 1 1 1 2 2 3 4 4 5 5 5 6 6 6 6 6 6 6 6 6 6 6 7 7 7 8 8 7 7 8 9 9 10 10 9 10 10
6 6 6 4 3 2 1 1 2 2 3 4 4 5 5 6 6 6 6 6 6 6 6 5 5 5 6 6 7 7 7 7 8 8 8 8 8 9 10 10 10 9 9
6 6 6 4 2 2 2 2 2 2 3 4 5 5 6 6 6 6 6 6 6 5 5 5 5 6 6 6 7 7 7 7 7 8 8 8 8 9 10 10 10 9 9
7 7 5 4 3 2 2 1 2 2 3 4 5 5 6 6 6 6 6 6 5 5 5 5 6 6 7 7 7 7 7 8 8 8 8 8 8 9 10 10 10 10 10
7 7 6 5 4 3 2 1 1 2 3 4 4 5 6 6 6 6 6 6 5 5 5 6 7 7 7 7 7 7 7 8 8 8 8 8 9 9 10 10 10 10 10
8 8 7 6 5 4 2 1 1 2 3 3 4 5 5 6 5 5 6 6 6 6 6 7 7 7 7 7 7 7 7 7 7 8 8 8 9 9 9 10 10 11 11
8 8 7 6 5 4 3 2 2 2 2 3 3 4 5 5 6 6 6 6 6 7 7 7 7 7 7 7 6 6 7 7 7 7 8 8 9 9 9 9 9 11 11
7 7 7 7 5 4 3 2 2 2 2 2 3 4 5 5 6 7 7 7 7 7 7 7 7 7 6 6 6 6 6 6 6 7 8 8 9 9 8 9 9 9 10
7 7 7 7 5 4 4 3 1 1 2 2 3 3 4 5 6 7 7 7 7 7 7 7 7 6 6 5 5 5 5 6 6 7 7 8 8 9 8 9 9 9 10
7 6 6 6 5 4 4 2 1 0 1 2 3 3 4 5 6 7 7 8 8 8 8 7 7 6 5 5 4 4 5 5 5 6 7 7 8 8 9 9 9 9 9
7 6 6 6 5 4 4 2 1 0 1 2 2 3 4 5 6 6 7 8 8 8 8 8 7 6 5 5 4 4 4 4 4 5 6 6 7 8 8 9 9 10 9
7 6 6 5 5 4 3 3 1 0 1 2 2 3 4 5 5 6 7 8 8 8 9 9 8 7 6 5 4 4 3 4 4 5 5 5 6 7 7 8 9 9 10
7 6 6 5 5 4 3 3 2 1 1 2 2 3 4 4 5 6 6 7 8 9 9 9 8 8 7 6 5 4 3 3 3 4 5 5 5 6 7 8 9 9 9
6 6 6 5 4 4 3 3 2 1 1 2 3 3 3 4 5 6 6 7 8 9 9 9 9 8 7 7 6 5 4 3 2 3 3 4 5 6 7 8 9 9 10
7 6 6 5 5 4 4 3 3 2 2 2 2 3 3 4 5 6 6 7 8 8 9 9 9 8 7 6 6 5 4 3 3 2 3 4 5 6 7 8 9 10 10
7 7 6 5 5 5 4 3 3 2 2 2 3 3 3 4 5 5 6 7 7 8 9 9 8 8 8 6 6 5 4 4 3 2 2 3 5 6 7 8 9 10 10
7 7 6 6 5 5 4 4 3 3 3 3 3 3 3 4 4 5 6 7 7 8 8 8 8 8 8 7 6 6 5 4 4 3 3 4 5 6 7 8 9 10 11
7 7 7 6 6 6 5 5 4 4 3 3 3 3 4 4 5 5 6 6 7 8 8 8 8 8 8 7 7 6 6 5 5 4 5 5 6 6 7 8 9 10 11

GEFSSE_500_meanwind_180.txt.gz
Wind_Speed
3 3 2 2 1 1 2 3 3 2 2 2 3 3 3 3 3 4 4 5 5 4 4 4 4 4 4 4 4 5 5 5 5 5 5 5 6 6 6 6 6 6 6
3 3 2 1 1 0 1 1 2 2 2 2 3 3 4 4 4 4 5 5 5 4 5 5 5 5 5 4 5 5 5 6 6 6 6 6 6 6 6 6 7 6 6
3 3 3 2 1 1 1 1 1 1 2 2 3 4 4 4 5 5 5 5 5 5 5 5 5 5 5 5 5 6 6 6 6 7 7 7 7 7 7 7 7 7 7
3 3 2 2 1 1 1 1 1 1 2 2 3 4 5 5 5 6 6 6 6 6 6 6 6 6 6 5 5 6 6 6 6 7 7 7 7 8 8 8 7 7 7
3 3 3 2 1 1 1 1 1 2 1 2 3 4 5 5 6 6 6 6 6 6 6 7 6 6 6 6 5 5 6 6 6 7 7 7 7 8 9 8 8 8 8
4 3 3 2 2 1 1 1 2 2 2 2 4 5 5 5 6 6 7 7 7 6 6 7 7 6 6 6 6 5 5 6 6 7 7 7 7 7 8 9 8 8 8
4 4 4 3 2 1 0 1 2 2 2 3 4 4 5 6 7 7 7 7 7 6 7 7 7 7 6 6 6 6 6 6 6 6 7 7 7 7 8 9 8 9 9
5 5 5 4 3 2 1 2 2 2 2 3 4 5 5 6 7 7 7 7 6 7 7 7 7 7 6 6 6 6 6 6 6 6 6 7 7 7 8 9 9 9 9
6 6 6 5 4 3 2 1 1 1 2 3 4 5 6 6 7 7 7 7 7 7 7 7 7 6 6 6 5 6 6 6 6 7 7 7 8 8 8 9 9 9 10
6 6 6 5 4 2 2 2 1 2 2 3 4 5 5 6 6 6 7 7 7 7 7 7 6 6 6 6 6 6 6 6 7 7 7 8 8 9 9 9 9 10 10
7 7 7 5 4 2 2 2 2 2 2 3 3 4 5 6 6 6 6 7 7 7 6 6 6 6 7 7 7 7 7 7 7 7 7 8 9 10 10 10 10 11 11
7 7 7 6 4 3 2 2 2 1 2 2 3 4 5 5 6 6 7 7 7 7 6 6 6 7 7 8 8 8 7 7 7 7 7 8 9 9 10 10 11 11 11
8 8 7 6 5 4 3 2 2 1 2 2 3 4 5 5 5 6 7 7 7 7 6 6 6 7 7 7 8 8 7 7 7 7 7 8 8 9 9 10 11 11 11
8 8 8 7 5 5 4 3 2 1 2 3 3 4 4 4 5 6 6 7 7 7 6 7 7 7 7 7 7 7 7 7 7 7 7 7 8 8 9 10 11 11 11
8 8 8 7 6 6 4 3 2 1 2 3 3 3 4 4 5 5 6 6 7 7 7 6 6 7 7 7 6 6 6 6 6 6 6 7 7 8 8 9 10 11 12
8 8 8 8 7 6 5 4 2 2 2 3 3 4 4 4 5 5 6 7 7 7 7 7 6 6 6 6 6 6 5 5 5 5 6 6 7 7 8 8 9 10 11
8 7 8 7 7 6 5 4 3 2 2 3 3 3 3 4 5 5 6 7 7 7 7 6 6 6 6 5 5 5 5 4 4 4 5 5 6 7 8 8 8 9 10
8 7 7 7 6 6 5 4 3 2 2 2 2 3 3 4 4 5 6 7 7 7 7 7 7 6 6 5 5 5 4 4 4 4 4 5 5 6 7 8 9 9 9
7 7 6 6 6 6 5 4 3 2 2 1 2 2 3 3 4 5 5 7 7 7 7 7 7 7 6 6 5 5 5 4 4 4 4 5 5 5 6 7 8 9 9
8 7 6 6 6 6 5 4 3 2 2 2 1 2 2 3 4 4 5 6 7 7 7 7 7 7 7 6 6 5 4 4 4 4 4 4 5 5 6 7 7 8 9
8 7 7 6 6 6 5 5 4 3 2 2 1 2 3 3 3 4 5 6 7 7 8 8 8 7 7 7 6 6 5 4 4 3 4 4 5 5 6 7 8 8 10
8 7 6 6 6 6 6 5 5 4 3 2 2 2 2 3 3 4 5 5 6 7 7 7 8 7 7 7 7 6 5 5 4 4 3 4 5 5 6 7 7 8 9
8 7 6 6 5 5 5 5 5 4 3 3 2 2 2 3 3 4 4 5 6 7 7 7 7 7 7 7 6 6 6 5 5 5 4 4 5 5 6 7 7 8 10
8 7 7 6 5 5 5 5 5 4 4 3 2 2 3 3 3 3 4 5 6 6 7 7 7 7 7 7 7 6 6 6 5 5 5 5 5 6 6 7 8 9 10
8 8 7 6 6 6 5 5 5 4 4 3 3 3 3 3 4 4 5 5 6 6 7 7 6 7 7 7 7 7 6 6 6 6 6 7 7 7 8 8 9 10 10
9 8 7 7 7 6 6 5 5 5 5 4 4 3 3 4 4 4 5 6 6 6 7 7 7 6 7 7 7 7 7 7 7 7 7 8 8 9 9 9 10 11 11

GEFSSE_500_meanwind_186.txt.gz
Wind_Speed
5 4 4 4 3 3 3 3 3 3 3 2 2 3 3 3 3 2 3 3 2 2 1 1 1 0 1 2 2 3 3 3 4 5 6 6 6 6 6 6 7 7 7
4 4 4 4 3 2 2 2 2 3 3 3 3 3 3 2 2 2 2 2 1 1 1 1 1 1 1 2 3 3 4 4 4 5 6 6 6 6 7 6 7 7 8
5 4 4 3 3 2 1 1 2 2 2 2 2 3 2 2 2 3 2 2 1 1 2 1 2 2 2 2 3 4 4 5 5 6 6 7 7 7 7 7 8 8 8
5 5 4 3 3 2 1 1 1 1 1 1 2 2 3 3 3 3 3 2 2 2 2 2 2 2 2 3 3 4 5 5 6 6 6 7 7 8 8 8 8 9 9
6 5 4 4 2 2 1 1 1 2 1 1 1 2 3 3 3 4 4 4 3 3 3 3 2 2 3 3 4 4 5 5 6 7 7 7 8 8 9 9 8 9 10
7 6 5 3 3 2 1 1 1 1 1 1 1 2 2 3 4 4 4 4 4 3 3 3 2 2 3 3 4 4 5 5 6 6 7 7 8 9 9 9 8 9 10
7 6 5 4 4 2 1 1 1 1 1 1 1 2 2 3 4 4 4 4 4 3 3 3 3 3 3 3 4 4 5 5 6 6 7 8 9 10 10 9 8 9 10
7 6 6 5 4 3 2 0 0 0 1 1 1 2 3 4 4 4 4 4 4 3 3 3 3 3 3 3 4 4 5 6 6 6 7 8 8 9 10 10 9 9 10
7 7 6 6 5 4 3 1 0 0 0 1 1 2 3 4 4 4 4 4 4 3 4 4 3 3 3 3 3 4 5 6 7 7 7 7 8 8 10 10 10 10 11
7 7 6 6 5 3 3 2 1 1 1 1 2 2 3 3 4 4 4 4 4 4 4 4 3 3 4 4 4 4 5 6 7 7 7 8 8 9 10 11 11 11 11
8 7 7 7 5 4 3 2 2 2 1 1 2 2 3 3 4 4 4 4 4 4 4 3 3 4 4 4 4 4 4 5 6 7 7 8 8 10 11 11 12 11 12
8 8 8 7 6 5 4 3 2 2 2 2 2 2 2 3 4 4 4 4 4 4 4 4 4 4 4 4 4 5 5 5 6 7 7 8 8 9 11 12 12 12 12
8 9 8 7 6 5 4 3 3 2 3 2 2 2 2 3 4 4 4 5 5 4 4 4 4 4 5 5 5 5 6 6 6 6 7 8 8 9 10 11 12 12 12
9 9 9 8 6 5 4 3 2 2 2 2 2 2 2 3 3 4 4 4 5 5 5 5 5 5 5 5 5 5 5 6 6 6 7 7 8 9 10 11 12 12 12
10 9 9 8 7 6 5 3 2 1 1 1 1 1 2 2 3 4 4 4 4 5 5 5 5 5 5 5 5 5 4 5 5 5 6 7 8 8 9 10 11 12 13
10 10 8 8 7 6 5 3 3 2 1 1 1 1 2 2 2 3 4 4 5 5 5 5 5 5 5 5 5 4 4 4 4 4 5 6 7 8 8 9 10 11 12
10 9 9 8 7 6 5 4 3 2 2 2 2 1 1 1 2 3 3 4 5 5 5 5 5 5 5 5 5 4 4 4 3 4 5 5 6 6 7 8 9 10 11
10 9 8 8 7 7 6 5 4 3 3 2 2 1 1 1 1 2 3 4 5 5 5 5 5 5 5 5 5 4 3 3 3 4 4 5 5 6 7 8 9 9 10
10 9 8 7 7 7 7 6 5 4 3 2 2 1 1 1 1 2 3 4 4 5 5 5 5 5 5 5 5 4 3 3 3 4 4 5 5 5 6 7 9 9 10
10 9 9 8 7 7 7 6 6 5 4 3 2 1 1 1 1 2 3 3 4 5 5 5 5 5 5 5 5 4 4 4 4 4 4 4 5 5 5 6 8 9 10
9 8 9 8 7 7 7 7 6 5 4 4 3 2 2 1 1 2 2 3 4 4 5 5 5 5 5 5 5 4 4 4 4 4 4 4 4 5 5 6 8 9 10
9 8 8 8 8 7 7 7 6 5 5 4 3 3 3 2 2 2 3 3 4 4 4 5 5 5 5 5 5 5 5 4 4 4 4 4 4 5 6 6 7 8 10
9 9 8 8 8 8 7 7 6 5 5 5 4 4 3 3 3 3 3 3 4 4 4 4 5 5 5 5 4 5 5 4 4 4 4 4 5 6 7 7 7 9 10
9 9 9 8 8 8 8 7 7 6 6 5 5 4 4 3 3 3 3 3 4 4 5 4 5 4 4 5 4 4 5 5 5 5 4 5 5 6 7 8 9 9 10
9 9 10 9 8 8 8 8 8 7 7 6 6 5 4 4 4 3 3 4 4 4 5 4 4 4 4 5 5 5 5 5 5 5 5 6 7 7 8 9 10 10 11
10 10 9 9 9 9 9 9 8 8 7 7 6 6 5 4 4 4 4 4 4 5 5 5 5 5 4 4 5 5 5 5 6 6 7 7 8 8 9 10 10 11 12

GEFSSE_500_meanwind_192.txt.gz
Wind_Speed
3 2 2 1 2 2 2 2 2 1 1 0 1 1 2 2 1 1 2 2 1 1 1 0 0 1 1 1 1 2 2 2 3 3 3 4 4 4 4 5 6 5 5
3 3 2 2 2 2 1 1 1 1 1 1 1 0 0 1 1 1 2 2 2 2 2 1 1 1 1 2 2 2 3 3 3 3 4 4 5 5 5 5 6 7 6
3 3 2 2 2 2 1 1 0 1 0 1 1 1 1 2 2 2 2 2 2 2 2 2 1 1 2 2 2 3 4 4 4 4 5 5 5 5 6 5 5 6 7
4 3 2 2 2 2 1 0 1 1 1 1 1 1 2 3 3 3 3 3 2 2 2 2 2 2 2 3 3 3 4 4 4 5 5 5 5 5 6 5 5 6 7
5 4 3 2 2 1 1 1 1 2 2 2 2 2 2 3 3 3 3 3 3 3 3 2 3 3 3 3 3 4 4 4 5 5 5 6 6 6 6 6 6 7 8
6 5 4 3 2 1 1 1 2 2 2 2 2 3 3 3 3 3 3 4 4 4 3 3 2 3 3 4 4 4 5 5 5 6 6 7 7 6 6 6 7 7 8
8 6 4 3 2 1 1 2 2 2 2 1 2 3 3 3 3 3 3 4 4 4 4 3 3 3 4 4 5 5 5 6 6 6 7 7 7 7 7 7 7 8 9
8 6 5 4 2 2 2 1 1 2 3 2 2 3 3 4 4 4 3 4 4 4 4 3 3 3 3 4 5 5 5 6 6 7 7 8 8 8 8 8 8 8 8
8 7 5 4 4 3 2 2 2 3 3 3 3 3 4 4 4 4 4 4 4 4 4 4 4 3 4 4 5 5 6 6 6 7 8 8 9 10 9 9 8 9 9
8 8 7 5 4 3 2 1 3 3 3 3 3 3 3 4 4 4 5 5 5 4 4 4 4 4 4 4 5 6 6 6 7 7 8 8 9 10 11 10 9 9 10
9 8 7 6 5 4 3 2 3 3 3 2 2 3 3 4 4 4 5 5 5 5 5 5 4 5 5 5 5 6 6 6 6 7 7 7 8 9 10 10 10 10 10
9 8 7 6 5 5 4 3 2 2 2 2 3 3 3 4 4 4 5 5 5 5 5 5 5 5 5 5 6 6 6 5 6 6 6 7 7 8 9 9 10 11 11
8 7 7 6 5 5 4 3 2 2 2 3 3 3 4 4 4 4 5 5 5 5 5 5 5 5 6 6 6 5 5 5 5 5 6 6 6 7 8 8 9 9 10
8 7 7 6 5 5 4 3 2 2 3 3 3 3 3 3 4 4 5 5 5 5 5 5 5 6 6 6 5 5 4 4 4 5 5 5 5 6 7 8 9 9 9
8 7 7 7 6 5 5 4 3 3 3 3 2 2 2 3 3 4 4 4 5 5 5 5 6 6 6 6 6 5 5 4 4 4 5 5 5 5 6 8 8 9 9
9 8 7 7 6 5 4 3 3 2 2 2 2 2 2 2 3 4 4 4 5 5 5 6 6 6 6 6 6 6 5 5 5 5 5 5 5 5 5 6 8 8 9
9 8 8 7 6 5 5 4 3 2 2 1 1 2 2 3 3 3 4 4 5 5 6 6 6 6 6 6 6 6 5 5 5 5 5 5 5 5 5 6 7 8 9
9 8 8 7 6 5 5 4 3 2 2 2 2 2 3 3 3 3 3 4 5 5 6 6 6 6 7 7 6 6 5 5 5 5 5 5 5 5 5 5 6 7 8
9 8 8 8 7 6 5 4 4 3 2 2 2 2 2 2 2 3 3 4 5 6 6 6 6 6 7 7 7 6 5 5 5 6 6 6 6 6 6 6 6 7 7
9 8 8 8 7 7 6 5 5 4 3 3 3 2 2 3 3 3 3 4 5 6 6 6 6 6 7 7 7 6 6 5 6 6 6 6 6 6 6 7 7 7 8
8 8 8 8 7 6 6 5 5 4 4 4 4 3 3 3 3 3 3 4 5 5 5 6 6 6 7 7 7 7 6 6 6 6 6 6 6 7 7 7 7 7 8
8 8 8 8 7 6 6 5 5 5 5 5 4 4 4 4 3 3 4 5 5 5 5 6 6 6 7 7 7 7 7 7 6 6 6 6 7 7 7 8 8 8 9
8 8 8 8 7 7 6 6 6 5 5 5 5 4 4 4 4 4 4 4 5 5 5 6 6 7 7 7 7 7 7 7 7 7 7 7 7 7 8 8 8 9 9
9 8 7 7 7 7 7 7 6 6 6 5 5 5 5 5 5 5 5 5 5 5 5 6 6 7 7 7 7 7 7 7 7 7 7 7 8 8 8 9 9 9 9
10 9 8 8 7 7 8 8 7 7 7 6 6 6 6 6 6 6 6 5 5 5 5 6 6 7 7 7 7 7 8 8 8 8 8 8 9 9 9 9 10 10 10
11 10 9 8 8 8 8 8 8 7 7 7 7 7 7 7 7 7 6 6 5 5 6 6 7 7 7 7 7 8 8 8 8 9 9 9 9 10 10 10 11 11 11

GEFSSE_500_meanwind_198.txt.gz
Wind_Speed
3 3 2 2 2 2 2 1 2 1 1 1 1 1 1 1 1 2 2 2 2 2 2 2 2 3 3 3 3 3 3 3 4 4 4 4 5 5 6 6 5 5 4
2 3 2 2 2 2 2 1 1 1 1 1 1 1 1 2 2 2 3 3 3 3 3 2 2 3 3 3 3 3 4 4 4 4 4 4 4 4 5 6 6 6 5
2 2 2 2 2 2 2 1 1 1 0 1 1 1 2 2 2 3 3 3 3 3 3 3 3 3 3 3 3 4 4 4 4 4 4 4 4 3 4 5 6 7 6
3 3 2 2 2 1 1 0 1 0 1 1 2 2 2 2 2 3 3 3 3 3 3 3 3 4 4 4 4 4 4 4 5 5 5 5 4 4 4 5 5 7 7
3 3 3 2 2 2 2 2 1 1 1 2 2 2 1 2 2 3 3 3 3 3 3 3 3 4 4 4 4 4 5 5 5 5 5 5 5 5 5 5 6 6 7
3 3 3 3 3 2 2 2 1 1 2 2 2 1 1 2 2 3 3 4 3 3 3 3 3 3 4 4 5 5 5 5 6 6 6 6 6 6 6 6 6 7 7
4 3 3 4 3 2 2 2 2 1 2 2 2 2 2 2 2 3 3 3 3 3 3 2 3 3 3 4 5 5 5 5 6 6 7 7 7 7 7 7 7 7 7
4 4 4 4 4 3 2 1 1 1 1 2 1 1 2 2 2 2 3 3 3 4 3 3 2 3 3 4 4 5 5 5 6 7 7 8 8 8 8 8 9 9 8
4 5 4 4 3 3 2 1 1 1 1 1 1 2 2 2 2 2 3 3 3 4 4 3 2 3 3 4 5 5 6 5 6 7 7 8 8 9 9 9 10 10 10
4 5 5 4 4 3 3 2 2 2 2 1 1 1 2 2 2 2 2 3 3 4 4 4 3 3 3 4 5 5 5 5 6 6 7 8 8 9 9 10 10 10 10
5 5 5 5 4 4 4 3 2 2 2 2 1 2 2 2 2 2 2 3 3 4 4 4 4 3 4 4 5 5 5 6 6 6 7 8 8 8 9 10 9 10 10
5 5 5 5 4 4 4 3 3 2 2 2 2 2 3 3 3 3 2 3 3 3 3 4 4 4 4 4 4 4 5 5 6 6 6 7 7 7 8 9 9 9 10
6 5 5 5 5 5 4 4 4 3 2 2 2 3 3 3 2 3 2 3 3 3 3 4 4 4 4 4 4 3 3 4 4 4 5 5 6 7 7 8 9 9 9
6 6 6 5 5 5 5 4 4 3 3 3 2 3 3 2 2 2 2 3 3 3 3 4 4 4 4 4 3 2 3 3 3 3 3 3 4 5 6 7 8 8 8
6 7 6 6 5 5 5 4 3 3 2 2 2 2 2 2 2 2 2 3 2 2 3 4 4 4 4 4 3 2 2 2 3 3 3 3 2 3 4 5 7 8 8
6 6 6 5 5 5 5 4 3 3 2 2 2 2 1 1 1 1 2 2 2 2 3 4 3 3 4 4 4 3 2 2 2 3 3 3 3 3 4 5 6 7 8
6 6 6 5 5 5 5 4 4 3 2 2 2 2 1 1 1 1 2 2 2 2 3 3 3 4 4 4 4 4 3 3 3 3 3 3 3 4 4 5 6 7 7
7 7 7 6 6 5 5 4 3 3 2 2 1 1 1 1 1 1 2 2 2 2 3 4 4 4 4 4 4 4 4 3 3 3 3 3 3 3 4 5 6 7 7
7 8 7 7 6 6 5 5 4 3 3 2 1 1 1 1 1 1 1 2 2 2 3 3 4 4 4 4 4 4 4 4 4 4 4 4 4 3 4 4 5 6 6
8 8 8 7 6 6 6 5 5 4 3 2 2 2 2 1 1 2 2 2 2 2 2 3 4 4 4 4 4 4 4 4 4 4 4 4 4 4 4 4 4 5 6
8 8 8 7 6 6 6 6 5 5 4 3 3 3 3 2 2 2 3 3 2 2 2 2 3 4 4 4 4 4 4 4 4 4 4 5 5 5 5 4 4 5 6
9 9 8 8 7 7 7 6 6 5 5 4 4 4 3 3 3 3 3 3 3 3 2 2 3 3 3 4 4 4 5 4 4 5 5 5 5 6 6 5 5 5 5
9 9 9 8 8 8 8 7 6 6 5 5 5 4 4 4 4 4 4 4 4 3 3 3 2 3 3 4 4 4 5 5 5 5 6 6 6 6 6 6 6 6 5
10 10 10 9 8 8 9 8 8 7 6 6 6 5 5 5 5 5 5 5 4 3 3 3 3 3 4 4 4 4 5 5 5 5 6 6 6 7 7 7 7 7 6
10 10 10 10 9 9 9 9 9 8 8 7 7 6 6 6 5 5 5 5 5 4 4 4 4 5 5 5 5 5 5 5 5 5 6 6 6 7 7 7 7 8 8
11 11 10 10 10 10 9 9 9 9 8 8 8 7 7 6 6 6 6 6 5 5 5 5 5 5 5 5 5 5 5 5 6 6 6 7 7 8 8 8 9 8 9

GEFSSE_500_meanwind_204.txt.gz
Wind_Speed
3 2 2 1 1 2 2 3 3 3 3 4 4 4 4 4 5 5 5 4 4 4 4 3 3 3 3 3 2 3 3 3 3 3 3 2 3 3 4 4 4 4 3
2 1 1 0 1 2 2 2 3 3 4 4 4 4 4 4 4 5 5 4 4 4 4 4 3 3 3 3 2 2 3 3 3 3 3 3 3 3 4 5 5 5 4
2 1 2 1 0 1 2 2 3 4 4 4 3 4 4 4 4 5 5 5 5 4 4 4 4 4 4 3 3 3 3 3 4 4 3 3 3 3 4 4 5 5 5
2 2 2 2 1 1 1 2 2 3 3 3 3 4 4 4 4 5 5 5 5 4 4 5 5 4 4 3 4 4 3 4 4 4 4 3 3 3 3 4 4 5 5
2 3 3 2 1 1 1 1 1 2 2 2 3 3 4 3 4 5 5 4 4 4 4 5 5 4 3 4 4 4 4 4 4 4 4 4 4 3 4 4 4 5 6
4 4 4 3 2 2 1 0 1 2 2 2 3 3 3 4 4 5 5 4 4 4 4 5 4 3 3 4 4 5 5 4 4 4 4 4 4 4 4 5 5 5 6
4 4 3 2 2 2 1 0 0 1 2 3 2 3 3 4 4 4 4 4 4 4 5 5 4 3 3 3 4 4 5 5 5 5 5 5 5 5 6 6 6 6 6
4 4 3 2 2 2 1 1 1 1 2 2 2 2 2 3 4 3 3 3 4 4 5 4 4 4 3 3 4 4 5 5 5 5 6 6 6 6 7 7 7 7 7
5 4 4 4 3 3 3 3 2 2 2 2 2 1 2 3 3 3 3 3 3 3 4 4 4 4 3 4 4 4 4 5 5 5 6 7 7 7 7 8 8 8 8
5 5 5 4 4 3 3 3 3 2 2 2 2 1 2 2 3 3 3 3 3 4 4 4 4 4 3 3 4 4 4 4 5 5 6 6 7 7 7 8 8 8 9
5 5 5 5 4 4 3 3 3 3 3 2 2 2 2 2 2 2 3 3 3 4 4 4 4 4 4 3 3 4 4 4 4 5 5 6 6 7 7 8 8 8 9
5 5 6 5 5 4 4 4 4 4 3 3 3 2 3 3 3 3 2 3 3 4 4 4 4 4 4 4 3 4 4 4 4 4 4 5 6 6 7 7 8 9 9
6 6 6 5 5 5 5 5 5 4 4 3 3 3 3 3 3 3 3 3 3 3 3 4 4 4 4 4 4 4 4 4 4 3 4 4 5 5 6 7 8 9 9
7 6 6 6 6 5 5 5 5 5 4 4 3 3 3 3 4 3 3 3 3 3 3 3 4 4 4 4 4 4 4 4 3 3 3 4 4 5 6 7 8 8 9
8 8 7 6 6 5 5 5 5 5 5 4 4 3 3 3 3 3 2 3 3 3 2 3 3 3 4 4 4 4 4 4 3 3 3 3 4 5 6 7 7 8 9
9 8 8 6 6 5 5 5 5 5 5 5 4 3 3 3 3 3 2 3 3 2 2 3 3 3 4 4 4 4 4 4 3 4 3 3 4 5 7 7 8 8 9
9 9 8 7 7 6 5 5 5 5 5 5 4 4 3 3 3 3 3 3 3 3 3 3 4 4 4 4 3 4 3 3 3 4 3 3 4 5 6 7 7 8 9
9 8 8 7 6 6 5 5 5 5 4 4 4 3 3 3 3 3 3 3 3 3 3 3 4 4 4 4 3 3 3 4 4 4 4 4 5 5 6 6 7 7 8
8 8 8 7 6 6 5 5 5 5 4 4 4 3 3 3 3 3 3 3 3 3 3 3 3 3 3 3 3 3 4 4 4 4 4 4 5 6 6 7 7 7 8
9 8 8 7 7 6 6 6 6 6 5 4 4 3 3 3 3 3 3 3 3 3 3 3 3 3 3 3 3 3 3 4 4 4 4 4 5 6 6 6 6 7 7
9 8 8 7 7 6 6 6 6 6 6 5 4 4 4 3 3 3 3 3 3 3 3 3 3 3 3 3 3 3 4 4 4 4 4 5 5 5 6 6 7 7 7
9 9 8 8 7 7 6 6 7 7 7 6 5 5 5 4 4 4 4 4 4 4 3 4 4 3 3 3 3 4 4 5 5 5 5 5 5 6 6 6 7 7 7
10 10 9 9 9 8 8 7 7 7 7 7 6 6 5 5 4 4 5 5 5 4 4 4 4 4 4 4 4 4 4 4 5 5 5 5 6 6 6 7 7 8 7
11 10 10 10 10 9 9 8 8 8 7 7 7 6 6 5 5 5 5 5 5 5 5 5 4 4 4 5 5 5 5 5 6 6 6 6 6 7 7 7 8 8 7
12 11 10 10 10 10 9 9 9 9 8 7 7 7 7 6 6 5 6 6 6 6 6 6 5 5 5 5 5 6 6 6 6 7 7 6 7 7 8 9 9 10 9
13 12 12 11 11 11 10 9 9 9 9 8 8 7 7 7 7 6 6 6 6 6 6 6 6 6 6 5 6 6 6 7 7 7 7 7 8 8 9 9 10 11 11

GEFSSE_500_meanwind_210.txt.gz
Wind_Speed
4 4 4 4 3 4 3 3 3 3 2 2 2 2 3 3 3 3 2 2 2 1 1 1 0 0 1 1 2 2 2 2 3 3 4 4 5 5 5 4 4 4 4
3 3 3 2 3 3 3 2 2 2 2 2 2 2 2 3 2 2 2 2 2 1 1 0 0 1 1 2 2 2 3 3 3 3 4 5 5 5 5 5 5 5 5
4 3 3 2 2 2 2 1 1 1 1 2 2 2 2 2 2 2 2 2 2 1 1 1 1 1 1 2 2 3 3 3 3 3 4 5 6 6 6 5 6 6 6
4 4 4 3 3 2 1 1 1 1 1 1 1 2 1 1 1 1 2 2 1 1 1 1 2 1 1 2 2 2 2 2 3 3 3 4 6 6 6 6 6 7 7
4 4 4 3 3 3 2 1 1 1 1 1 1 1 1 1 1 2 2 2 1 1 1 1 1 1 2 2 2 2 2 3 3 3 4 4 5 6 5 6 6 7 7
4 4 4 4 4 3 3 2 2 1 1 1 1 1 2 1 1 2 1 1 1 1 1 1 1 2 2 2 2 2 3 3 4 4 4 5 5 6 6 6 6 6 7
5 5 4 5 4 4 3 3 3 1 1 1 1 1 2 2 1 1 1 1 1 1 2 2 2 1 2 2 1 2 3 3 4 5 5 6 6 7 7 7 7 7 7
5 5 5 4 4 4 4 3 2 2 1 1 2 2 2 2 2 1 1 1 1 1 2 2 1 1 2 2 2 2 2 3 4 5 5 6 6 7 8 7 8 8 8
6 6 5 5 4 5 4 3 3 3 3 3 3 3 3 3 2 1 1 1 1 1 2 2 2 3 3 3 2 2 3 4 5 5 6 6 7 7 8 8 8 8 8
6 7 6 6 6 5 5 4 4 4 4 4 3 3 4 3 2 2 1 1 1 1 2 2 2 3 3 3 2 3 3 4 4 5 6 7 7 8 8 8 8 8 8
6 7 7 7 6 6 6 6 5 5 5 4 4 4 4 3 2 2 2 1 1 2 2 2 2 3 3 2 2 3 3 4 4 5 6 6 7 7 8 8 8 8 8
7 7 8 7 7 7 7 6 6 6 6 5 4 4 3 2 2 2 1 1 1 2 2 3 3 3 3 3 2 2 2 3 3 4 5 6 6 7 8 9 9 9 9
8 8 8 8 8 8 7 7 6 6 6 5 4 4 3 3 2 2 2 2 2 2 2 3 3 3 3 3 2 2 2 2 3 4 5 5 6 6 7 8 9 10 10
8 8 8 8 8 8 8 7 6 6 6 5 5 4 4 4 3 3 2 2 2 2 2 2 3 3 3 2 2 2 2 2 3 4 4 5 6 6 7 8 9 10 10
9 9 9 9 9 8 8 7 7 6 6 6 5 5 4 4 3 3 3 3 2 2 2 2 3 3 2 2 2 2 2 2 3 4 4 5 5 6 7 8 9 10 11
10 10 9 9 9 8 8 7 7 7 6 6 6 5 5 5 4 4 4 3 3 3 2 3 3 3 3 3 3 3 2 2 2 3 4 4 4 5 6 7 8 9 10
10 10 9 9 9 9 8 8 7 6 6 6 5 5 4 5 4 4 3 3 3 3 3 3 3 4 3 3 3 3 3 3 2 2 3 4 4 5 6 7 8 9 10
10 10 9 9 9 8 8 8 7 6 6 5 5 5 4 4 4 4 3 3 3 3 3 3 3 3 3 3 3 2 2 2 2 2 2 4 4 5 6 7 7 8 9
10 9 10 10 9 8 8 7 7 6 5 5 5 5 4 4 4 3 3 3 3 3 3 3 3 3 3 3 3 2 2 2 3 3 3 3 4 5 6 6 7 7 8
10 10 10 10 9 8 8 7 7 6 6 5 5 5 4 4 4 4 4 4 4 4 4 4 3 3 3 3 3 2 2 3 3 3 4 4 5 6 6 7 7 7 8
10 10 10 10 9 9 8 8 7 7 6 6 6 5 4 4 4 4 4 4 4 4 4 4 3 3 3 3 3 3 3 4 4 4 4 5 5 6 6 7 7 7 8
10 10 10 10 10 9 9 8 8 7 7 6 6 6 5 5 5 4 4 4 4 4 4 4 4 4 4 4 4 4 4 4 4 4 5 5 6 6 7 7 7 7 8
11 11 10 10 10 10 10 9 8 8 7 7 7 6 6 5 5 4 4 4 4 4 4 4 4 5 5 4 4 4 5 5 5 5 5 6 6 6 7 7 6 7 8
12 12 12 11 11 10 10 10 9 8 8 7 7 6 6 5 5 5 4 5 5 4 5 5 5 5 5 5 5 5 5 5 6 6 6 6 7 6 7 7 7 7 8
13 12 12 11 11 11 11 11 10 10 9 8 8 7 6 5 6 6 6 6 5 5 5 5 5 5 5 5 5 6 6 6 6 6 7 7 7 7 7 8 7 8 9
13 13 13 12 12 12 12 12 12 11 11 10 9 8 8 7 7 7 7 6 6 6 6 5 5 6 6 6 6 6 6 6 7 7 7 7 7 8 8 8 9 9 9

GEFSSE_500_meanwind_216.txt.gz
Wind_Speed
1 1 2 2 1 1 1 0 1 1 0 0 1 1 2 2 1 1 2 2 2 2 1 0 1 1 1 1 1 2 3 2 2 3 3 3 3 2 2 2 2 2 2
2 2 3 2 2 1 1 1 1 1 1 1 1 1 1 2 2 2 2 2 2 2 2 0 0 1 1 2 2 2 3 3 3 4 4 4 3 3 3 3 3 3 3
3 3 4 3 2 2 2 2 2 2 2 2 1 1 1 2 2 2 2 1 2 2 1 1 0 1 1 2 2 3 3 3 3 4 5 4 4 3 4 4 4 4 3
4 4 4 4 3 3 3 2 3 3 3 3 2 1 1 2 2 2 2 2 2 2 2 1 1 1 1 2 2 3 3 3 2 3 4 4 4 4 4 4 4 4 4
4 5 5 4 4 4 3 3 3 3 3 3 3 2 2 3 3 3 2 3 2 2 2 2 2 2 1 2 2 2 2 2 2 2 3 4 4 4 4 4 5 4 4
5 5 5 5 5 5 4 3 3 3 3 3 3 3 3 3 3 3 3 3 3 2 2 3 3 3 2 3 2 2 3 3 3 3 3 3 4 4 4 4 5 5 5
5 5 6 5 5 4 4 4 4 4 3 4 4 4 4 4 4 4 3 3 3 3 2 3 4 4 4 3 2 2 2 3 4 4 4 4 4 5 4 5 5 6 6
6 6 6 5 5 5 5 4 4 4 5 4 4 4 4 4 4 4 3 3 3 3 2 3 4 5 4 2 2 2 2 3 4 4 4 4 4 5 5 5 5 6 6
7 7 7 6 6 5 5 4 4 4 4 5 5 5 5 4 4 4 4 3 3 3 3 3 4 4 4 3 3 3 3 3 3 4 4 5 5 5 5 5 6 6 6
8 7 7 7 6 5 5 5 5 5 5 6 6 6 6 5 5 4 4 3 3 3 3 3 4 4 4 4 4 4 3 3 3 4 4 5 5 5 6 6 6 6 7
7 7 7 7 7 6 6 6 6 6 6 6 6 6 6 5 4 4 3 3 3 2 3 3 4 4 4 4 4 4 3 3 3 4 4 5 5 5 6 6 7 7 8
7 7 7 7 7 6 6 6 6 7 7 6 6 6 6 5 4 4 3 3 3 3 3 4 4 4 4 4 4 4 3 3 3 3 4 4 5 6 6 7 7 8 8
8 7 8 7 7 7 7 7 7 7 6 6 6 7 6 6 5 4 3 3 3 4 4 4 4 4 4 4 4 4 3 3 3 4 4 4 5 6 7 7 8 8 9
8 8 8 8 8 8 7 7 7 7 7 6 6 5 5 5 4 4 3 3 4 4 4 4 5 5 4 4 4 4 4 4 4 4 5 4 5 6 6 7 7 8 9
9 9 8 8 8 9 8 8 8 8 7 6 6 5 6 6 6 5 4 4 4 5 5 5 5 5 5 5 5 4 4 4 4 5 5 5 5 6 7 7 8 8 9
10 10 9 9 8 8 8 8 8 7 7 6 6 5 6 6 6 5 5 5 5 5 5 6 5 5 5 5 5 4 3 4 4 4 5 5 6 6 7 8 9 9 9
11 10 10 9 9 9 9 8 8 8 7 7 6 6 6 6 5 5 5 4 4 5 5 5 5 5 5 5 5 4 4 4 4 4 5 6 6 7 7 8 9 9 9
10 10 10 9 9 9 9 8 8 7 7 7 7 6 6 6 5 5 5 4 5 5 5 5 5 4 4 4 4 4 4 4 5 5 6 6 7 7 8 8 8 9 9
10 10 10 10 9 9 9 8 8 7 7 7 7 7 6 6 6 6 5 5 5 5 6 5 4 4 4 4 4 4 4 4 5 6 6 6 7 8 8 9 9 9 9
10 10 9 9 9 9 9 8 8 7 7 7 7 6 6 6 6 6 6 5 5 5 5 5 5 5 5 5 4 5 5 5 6 6 6 7 8 8 9 9 9 9 9
10 9 9 9 9 9 9 8 7 7 6 7 6 5 5 5 5 6 5 5 5 5 5 5 5 5 5 5 5 5 5 5 6 6 7 7 8 8 8 8 8 9 9
10 10 9 10 9 9 9 8 7 7 7 7 6 6 5 5 6 6 5 5 5 5 5 5 5 5 5 5 5 5 6 6 6 6 7 7 8 8 8 8 7 8 9
10 10 9 10 10 9 9 8 8 8 7 7 7 7 6 6 6 6 5 5 5 5 5 5 5 5 5 6 6 6 7 6 6 6 7 7 7 7 7 8 8 8 9
11 11 10 10 10 10 9 9 8 8 8 8 8 7 7 7 6 6 5 5 5 5 6 6 6 6 6 6 6 7 7 7 6 7 7 7 7 7 7 8 8 9 9
11 11 11 11 11 10 10 10 9 10 10 9 8 8 8 8 7 7 6 6 6 6 6 6 7 7 7 7 7 7 7 7 7 7 7 7 8 8 8 8 9 9 10
12 12 11 11 11 11 11 11 11 11 11 10 9 9 9 8 8 8 7 7 7 7 7 7 7 7 7 7 7 8 8 7 7 7 7 8 8 9 9 9 9 9 10

GEFSSE_500_meanwind_222.txt.gz
Wind_Speed
1 1 0 1 2 2 3 3 2 3 3 3 2 3 2 2 2 3 2 3 2 2 3 3 3 3 3 3 3 3 4 4 3 3 3 2 2 2 2 3 2 2 2
1 1 1 1 2 2 2 2 2 3 3 3 2 2 2 2 2 3 3 3 3 3 4 4 4 3 4 3 3 4 4 5 5 4 3 3 2 2 3 3 3 3 2
1 1 1 1 2 2 2 2 2 3 3 3 3 3 3 3 3 3 3 3 3 4 4 4 3 3 4 3 3 4 4 5 5 4 4 3 3 3 3 3 2 3 3
1 1 2 2 1 2 2 2 2 2 3 3 3 4 3 3 3 3 4 3 3 4 4 4 4 3 3 3 3 3 2 2 4 4 4 4 3 3 3 3 2 2 3
2 2 2 2 2 2 3 3 3 3 3 3 3 4 3 3 2 3 3 3 3 4 4 4 3 3 3 3 3 3 3 2 3 4 3 3 3 4 3 3 3 3 3
2 2 3 3 3 3 3 3 3 4 4 5 5 4 4 4 3 3 3 3 4 4 4 3 3 3 3 2 3 3 3 3 3 4 4 4 4 4 4 3 3 3 3
3 3 3 3 3 4 4 4 4 4 5 6 5 5 4 4 3 3 3 3 3 3 3 3 3 2 2 3 3 3 2 3 4 4 4 4 4 4 4 4 4 3 3
3 4 4 3 3 3 3 3 4 5 6 6 6 5 5 4 4 4 4 4 4 3 3 3 3 3 2 3 3 3 3 3 4 4 4 4 4 4 4 4 4 4 4
4 4 4 4 4 3 3 4 5 6 6 5 6 5 5 4 4 4 4 4 4 4 4 3 3 3 2 2 2 3 3 4 5 5 5 5 5 5 5 4 4 4 4
4 4 4 4 4 4 4 4 4 5 5 5 5 5 5 5 5 5 5 5 5 4 4 4 3 3 2 2 2 3 3 4 5 5 5 6 5 5 5 5 5 5 5
3 4 4 4 4 4 3 4 5 5 6 6 6 5 5 5 5 5 5 5 4 4 5 5 4 3 3 3 3 3 3 3 5 5 5 5 5 5 5 5 6 6 6
4 4 4 4 4 4 4 5 5 5 6 6 6 5 5 5 5 5 4 4 4 4 4 4 4 3 3 3 3 3 3 3 4 4 5 5 5 5 6 6 6 6 7
4 4 4 4 4 5 5 5 6 6 6 6 6 6 5 5 5 5 5 5 4 4 4 3 3 3 4 4 4 4 4 4 4 5 5 5 5 5 5 5 6 6 6
5 4 5 5 5 5 6 6 6 6 6 6 6 5 5 5 5 5 5 5 4 4 4 4 4 4 5 5 4 4 5 4 4 5 5 5 5 5 5 5 5 5 6
6 6 6 6 5 5 6 6 6 6 6 6 5 6 6 5 5 4 4 5 5 5 5 5 5 5 5 5 5 5 5 4 4 4 4 5 5 5 5 5 6 6 6
7 6 6 7 6 6 6 6 5 6 6 6 5 6 5 5 5 5 4 5 6 5 5 5 5 5 5 5 5 5 4 4 4 4 5 5 5 5 6 6 7 7 6
7 7 7 7 7 7 7 5 5 5 5 5 5 5 5 5 5 4 4 4 5 5 5 4 4 5 5 5 4 5 4 5 4 4 5 5 6 6 6 6 6 6 6
8 7 7 7 7 7 6 5 5 5 5 5 5 5 5 5 4 4 4 4 5 5 5 5 4 4 4 5 4 5 5 5 5 5 5 6 7 7 7 6 6 6 6
8 8 8 8 8 7 6 6 6 6 6 6 5 5 5 5 4 4 4 5 5 5 5 4 4 4 4 5 4 4 5 5 5 6 6 7 7 6 6 6 6 7 7
8 8 8 8 8 8 7 7 7 6 6 6 5 4 4 4 4 4 5 5 5 5 5 4 4 4 4 4 4 4 4 5 5 6 6 6 6 6 6 6 6 7 7
8 8 8 8 8 8 8 7 7 7 7 6 5 5 5 5 4 4 5 5 5 5 4 4 4 4 4 4 4 4 4 5 5 5 5 5 5 6 6 6 6 6 7
8 8 9 9 9 8 8 7 8 7 7 7 6 6 5 5 4 5 5 5 5 5 4 3 4 4 4 5 4 4 4 5 5 5 5 5 5 6 6 6 7 7 7
9 9 9 9 9 8 8 8 8 8 8 7 6 6 6 6 6 5 5 5 5 5 4 4 4 4 4 4 5 5 5 5 5 5 5 5 5 6 7 7 7 7 7
8 8 9 9 9 8 8 8 9 9 8 8 7 7 7 7 7 7 6 5 5 5 5 5 5 5 5 5 6 6 6 5 5 5 5 5 6 6 7 7 7 7 7
9 9 9 9 9 9 9 9 10 10 10 9 8 8 8 8 8 8 7 7 6 6 6 6 6 6 6 6 6 6 6 6 5 5 5 6 6 7 7 7 8 8 8
10 10 10 10 11 10 10 10 11 11 10 10 9 9 9 9 9 8 8 8 8 7 7 6 6 6 7 7 7 6 6 6 6 6 6 7 7 7 7 8 8 8 8

GEFSSE_500_meanwind_228.txt.gz
Wind_Speed
1 2 2 3 4 5 5 5 5 6 6 5 5 5 5 5 4 3 4 4 4 4 4 4 4 4 4 4 3 3 3 3 3 3 2 2 2 2 3 3 3 3 2
2 2 2 3 3 4 4 5 5 6 6 5 5 5 4 4 4 3 3 4 4 4 4 5 5 5 4 4 4 4 5 4 3 3 3 2 2 3 3 3 3 3 3
2 2 3 3 4 4 4 4 4 5 5 5 4 4 4 4 4 3 3 4 4 4 4 5 5 4 5 5 5 4 5 5 4 4 4 3 3 3 3 3 3 3 3
1 2 3 4 4 3 3 3 4 4 4 5 5 4 4 4 4 3 4 4 4 3 4 4 4 4 4 5 4 3 3 4 4 4 4 3 3 3 4 3 3 3 3
2 3 3 4 4 3 3 2 3 4 4 5 5 5 5 5 3 3 3 3 3 3 3 4 4 4 4 4 4 3 3 3 3 3 4 4 4 4 4 4 3 3 3
3 3 4 4 4 4 3 3 3 4 4 4 5 6 5 4 4 3 4 4 4 4 4 4 5 5 5 4 4 3 3 3 3 4 4 4 4 4 3 3 3 3 3
2 3 4 4 4 4 3 3 4 5 4 4 5 6 5 5 4 4 5 4 4 4 4 5 5 5 5 5 4 3 3 4 4 3 4 4 4 4 3 3 3 3 4
3 3 3 3 4 4 3 4 4 5 5 5 6 6 5 5 5 5 5 5 5 5 5 5 6 5 5 5 5 4 4 4 4 4 4 5 5 5 5 5 4 5 4
4 3 3 3 3 3 4 4 5 5 5 5 6 6 6 5 5 6 5 6 6 5 5 6 6 5 5 4 4 4 4 4 5 5 5 5 5 5 5 5 5 5 6
4 4 3 3 3 3 4 4 5 5 5 5 6 5 6 5 5 5 6 6 6 6 5 5 5 4 4 4 4 4 4 4 4 5 5 6 6 6 6 6 5 6 6
4 4 3 3 3 4 4 5 5 5 5 6 6 6 5 5 5 6 6 6 5 5 5 5 5 4 5 5 5 4 4 4 4 5 5 6 6 6 6 6 6 6 7
4 3 3 3 4 4 5 5 5 5 5 6 6 6 6 6 6 6 6 6 5 5 5 5 5 5 5 5 5 5 4 5 5 5 5 6 6 6 7 7 7 7 7
4 4 4 4 4 5 5 5 6 6 6 6 6 6 6 6 6 6 6 6 5 5 5 5 5 5 6 5 5 5 5 5 5 5 5 6 6 7 6 7 7 7 7
5 4 5 5 5 5 5 5 6 6 6 6 6 7 7 6 6 7 6 6 6 6 6 6 6 6 7 6 6 6 6 5 5 6 6 6 6 6 6 6 7 7 8
6 6 5 6 5 6 6 6 6 6 7 7 7 7 7 7 7 7 7 6 7 7 7 7 8 7 7 6 6 6 6 6 6 6 6 6 7 7 7 7 7 7 7
7 6 6 6 6 6 6 6 6 6 6 7 6 6 7 7 7 6 7 7 6 6 7 7 7 7 7 6 5 5 5 5 6 6 6 6 6 7 7 7 7 7 7
7 7 7 7 6 6 6 6 6 6 6 6 6 6 7 7 7 7 7 6 7 7 7 7 7 7 7 6 5 5 5 5 5 5 5 5 6 7 7 7 7 7 7
8 8 8 8 7 7 7 6 6 6 7 7 6 6 6 6 7 6 6 6 7 7 6 6 6 6 6 5 5 5 5 5 5 5 5 5 5 6 6 6 7 7 7
9 8 8 8 8 8 8 7 7 7 7 7 7 7 6 6 5 5 6 6 6 5 5 6 6 5 5 5 5 5 5 5 5 5 5 5 5 6 6 6 7 7 7
10 9 9 9 9 9 9 8 8 8 8 7 7 7 6 6 6 6 6 5 5 5 5 6 6 5 4 4 4 5 5 5 5 5 5 5 5 6 6 7 7 7 7
10 10 9 10 10 10 10 10 10 9 9 8 7 7 6 6 6 6 6 6 6 5 5 5 5 5 5 4 4 5 5 5 5 5 5 5 6 6 7 7 8 8 8
10 10 10 11 11 11 10 10 10 10 10 9 8 8 7 7 7 7 6 6 6 6 5 5 5 5 5 5 5 5 6 6 6 5 5 4 5 7 7 8 8 9 9
11 11 11 11 11 11 10 10 10 10 10 10 8 8 8 8 7 7 7 7 6 6 6 5 5 5 5 5 5 5 6 6 6 6 5 5 6 7 7 8 8 9 10
11 11 11 11 12 12 11 11 11 11 10 10 9 9 8 8 8 8 8 7 7 6 6 5 5 5 5 5 6 6 6 6 6 6 6 6 7 7 8 9 9 10 10
11 12 12 12 12 12 12 12 12 12 11 11 10 10 9 9 9 9 8 8 8 7 6 6 6 6 5 5 6 6 6 6 7 7 7 8 8 9 9 9 10 10 10
11 12 12 12 12 12 12 12 12 12 11 11 11 11 10 10 10 10 9 9 8 8 7 7 7 6 7 7 7 7 7 8 8 8 8 9 9 9 10 10 10 10 10

GEFSSE_500_meanwind_234.txt.gz
Wind_Speed
2 2 2 2 2 3 2 3 3 3 2 3 3 3 3 3 2 1 1 2 2 1 1 1 1 2 2 2 3 3 3 3 3 3 2 2 2 2 3 3 3 3 3
1 2 1 1 1 2 2 2 2 3 3 3 2 2 2 1 1 1 1 1 1 1 1 1 2 2 3 3 4 4 4 3 3 3 3 3 3 3 3 4 4 3 3
1 0 0 1 2 1 1 1 2 2 2 2 2 1 1 1 0 1 1 1 1 1 1 1 2 3 4 4 5 5 4 4 4 4 4 4 4 4 4 4 4 3 3
1 1 1 2 3 2 2 2 2 2 1 1 1 1 1 1 0 1 1 1 0 1 2 2 2 3 3 3 3 4 4 4 4 4 5 5 4 5 5 5 5 5 4
2 2 2 3 3 3 3 3 3 2 1 1 1 1 1 1 1 1 2 1 1 2 2 2 2 3 2 1 1 3 3 3 4 4 5 5 5 5 5 5 6 6 5
2 2 2 3 3 3 3 3 3 3 2 2 2 2 2 2 2 3 3 3 3 3 2 2 3 3 2 2 1 2 3 3 4 4 5 5 5 6 6 6 6 6 6
3 3 3 3 3 3 3 3 3 4 4 4 4 3 4 4 3 4 4 4 4 3 3 3 3 3 3 2 2 3 3 3 4 4 4 5 5 6 6 6 6 6 6
4 4 3 4 3 3 3 3 4 4 4 4 4 5 5 5 5 5 5 4 4 4 4 3 3 3 3 3 3 3 3 4 4 4 4 5 5 6 6 6 6 7 7
4 5 4 4 4 4 4 4 4 5 5 4 4 5 5 5 5 5 5 6 6 5 4 4 3 3 4 3 3 4 4 4 5 5 5 5 5 5 5 6 6 6 7
4 5 4 4 5 5 5 5 5 5 5 5 5 5 5 5 5 5 5 5 5 5 5 4 4 5 4 3 3 3 4 4 4 5 6 6 5 5 5 5 6 7 7
4 5 5 5 5 6 5 5 5 5 5 5 5 5 5 5 5 5 5 5 6 5 5 5 5 5 5 3 3 4 4 5 5 5 6 6 6 6 6 6 7 8 8
5 5 5 5 6 6 6 6 6 6 6 6 5 6 5 5 5 5 5 6 6 6 6 6 5 5 5 4 4 4 5 5 5 5 6 6 7 7 7 7 8 8 8
6 6 6 6 6 6 6 6 6 6 6 6 5 5 6 6 6 6 6 6 6 6 6 6 6 5 5 5 5 5 5 6 5 5 6 7 7 7 8 8 8 9 9
7 7 7 6 6 6 6 6 6 6 6 6 6 6 6 7 7 7 7 7 7 7 7 7 6 6 6 6 6 7 7 7 7 7 7 7 7 8 8 8 8 9 9
8 7 7 7 7 7 7 7 7 7 7 7 7 7 7 7 7 7 7 7 7 7 7 7 7 7 7 7 7 7 7 7 7 7 7 7 8 8 8 8 7 8 8
9 8 8 8 8 7 7 7 7 7 7 7 7 7 7 7 8 8 7 8 8 8 7 7 7 7 7 7 7 7 7 7 7 7 7 6 7 7 7 7 7 8 8
10 9 9 9 8 8 8 8 8 7 7 7 7 7 7 8 8 8 8 8 7 7 7 7 7 7 7 8 7 7 7 7 6 6 6 6 6 5 6 6 7 7 7
11 10 10 10 10 10 10 10 9 8 7 8 8 8 8 8 8 8 7 7 6 6 7 7 7 7 7 8 8 7 7 6 6 6 6 6 5 5 6 6 7 7 7
11 11 11 11 11 10 10 10 10 9 9 8 8 8 8 8 8 8 6 7 7 7 7 7 7 7 7 7 7 6 6 6 6 6 6 6 6 6 6 7 7 7 8
11 11 11 11 11 11 10 10 10 10 10 9 8 8 8 8 8 6 6 6 7 6 7 7 7 6 6 6 6 7 7 7 7 7 7 7 7 7 7 7 7 8 8
11 11 11 12 12 11 10 10 10 10 9 9 9 9 9 8 7 6 6 6 6 6 6 6 6 6 6 6 6 7 7 7 7 7 7 7 7 7 7 8 8 8 9
12 12 12 12 11 11 11 10 10 10 10 10 9 9 9 8 8 7 7 7 7 7 6 6 6 6 6 6 7 7 7 7 7 7 7 7 7 7 8 8 8 9 9
12 12 13 12 11 11 11 11 11 11 11 11 10 10 10 9 9 8 8 8 8 7 6 6 7 6 6 6 6 6 7 7 8 8 7 8 8 8 9 9 9 9 10
12 12 12 13 12 11 11 11 11 11 11 12 11 10 10 10 9 9 8 8 8 7 7 7 6 6 6 6 6 6 7 7 7 8 8 9 9 9 9 10 10 11 10
12 11 12 12 12 11 11 11 11 11 11 12 11 11 11 9 9 9 8 8 7 7 7 7 7 7 7 7 7 7 7 8 8 8 9 10 10 10 10 10 10 10 10
12 12 12 13 12 12 12 12 12 12 12 12 11 11 10 10 9 8 8 8 8 7 8 8 8 8 8 8 8 8 8 8 8 9 9 10 10 10 10 10 10 10 10